     2              OBSERVATION DATA    G (GPS)             RINEX VERSION / TYPE
ASRINEXO V2.9.7 UX USGS/MENLO_PARK 23-JUL-01 17:13          PGM / RUN BY / DATE
                                                            COMMENT
National Earthquake Hazard Reduction Program                COMMENT
Crustal Strain Project                                      COMMENT
345 Middlefield Road, MS/977                                COMMENT
U.S. Geological Survey, Menlo Park, California 94025        COMMENT
Contact: kwendt@usgs.gov (Ph: 650-329-4866)                 COMMENT
HI's are vertical to base of antenna                        COMMENT
BIT 2 OF LLI (+4) FLAGS DATA COLLECTED UNDER "AS" CONDITION COMMENT
pier Pierce_1923_USC&GS                                     MARKER NAME
CHS                                                         OBSERVER / AGENCY
lp019992804 ASHTECH Z-XII3 CD00                             REC # / TYPE / VERS
CR14329 ASH700936D_M NONE                                   ANT # / TYPE
 -2728122.0000 -4026306.0000  4113976.0000                  APPROX POSITION XYZ
        1.4639        0.0000        0.0000                  ANTENNA: DELTA H/E/N
     1     1                                                WAVELENGTH FACT L1/2
     5    C1    L1    L2    P1    P2                        # / TYPES OF OBSERV
    30                                                      INTERVAL
  2001     7    12    16    36    0.000000                  TIME OF FIRST OBS
                                                            END OF HEADER
 01  7 12 16 36  0.0000000  0  4 06 17 15 18
  20592846.814      437390.482 9    276677.02547  20592846.719    20592849.9904
  20620929.578      111708.299 9     91332.81147  20620928.908    20620932.1894
  21188617.063       67998.665 9     58951.11247  21188615.837    21188619.2734
  21813369.452      -30507.125 9     -2973.18247  21813369.189    21813371.9324
 01  7 12 16 36 30.0000000  0  5 06 17 15 10 18
  20600021.908      475094.724 9    306056.92147  20600021.811    20600024.8054
  20616751.437       89752.674 9     74224.52147  20616750.860    20616754.0804
  21178877.261       16818.160 9     19070.19447  21178876.509    21178879.8534
  23983891.766    -1014224.45018   -811809.43855  23983889.589    23983896.0794
  21797218.152     -115385.158 9    -69111.86447  21797217.430    21797220.1454
 01  7 12 16 37  0.0000000  0  5 06 17 15 10 18
  20607280.686      513239.498 9    335780.09047  20607280.547    20607283.4784
  20612620.993       68046.319 9     57310.46347  20612620.380    20612623.5664
  21169185.204      -34114.688 8    -20617.73447  21169184.329    21169187.6344
  24003738.021     -909929.613 8   -730540.87345  24003737.258    24003742.9504
  21781133.692     -199909.412 8   -134974.89147  21781132.986    21781135.7374
 01  7 12 16 37 30.0000000  0  4 06 17 10 18
  20614628.470      551852.445 9    365868.06747  20614628.350    20614631.2184
  20608543.196       46616.895 9     40612.18547  20608542.573    20608545.7004
  24023615.515     -805473.967 8   -649146.99945  24023614.997    24023620.0734
  21765121.995     -284050.634 9   -200539.44947  21765121.370    21765124.0804
 01  7 12 16 38  0.0000000  0  3 06 10 18
  20622059.396      590901.376 9    396295.76947  20622059.225    20622062.0314
  24043517.377     -700891.965 8   -567654.63045  24043516.400    24043521.3464
  21749177.652     -367838.596 9   -265828.72647  21749177.008    21749179.7284
 01  7 12 16 38 30.0000000  0  4 06 10 17 18
  20629573.750      630389.392 9    427065.61648  20629573.534    20629576.5104
  24063443.025     -596182.822 7   -486063.14945  24063441.946    24063446.9904
  20600527.373                                    20600529.400    20600530.6084
  21733301.419     -451268.764 9   -330839.20047  21733300.799    21733303.4854
 01  7 12 16 39  0.0000000  0  4 06 10 17 18
  20637172.384      670320.613 9    458180.82947  20637172.183    20637175.1924
  24083392.435     -491344.942 8   -404371.34445  24083391.765    24083397.0574
  20596591.945     -998331.83657                  20596591.087    20596594.2524
  21717494.273     -534335.201 9   -395566.25347  21717493.752    21717496.4834
 01  7 12 16 39 30.0000000  0  4 06 10 17 18
  20644855.665      710695.784 9    489641.98947  20644855.424    20644858.3254
  24103366.595     -386380.132 8   -322580.69245  24103365.937    24103371.1854
  20592703.439    -1309740.65919  -1014253.06147  20592703.028    20592706.2244
  21701756.932     -617035.232 9   -460007.77047  21701756.407    21701759.1544
 01  7 12 16 40  0.0000000  0  4 06 10 17 18
  20652623.341      751514.630 9    521448.85247  20652623.076    20652626.0274
  24123364.924     -281290.760 8   -240693.00045  24123363.942    24123368.9454
  20588863.321    -1329920.431 9  -1029977.56247  20588862.937    20588866.1054
  21686089.549     -699367.179 9   -524162.50847  21686089.173    21686091.9724
 01  7 12 16 40 30.0000000  0  4 06 10 17 18
  20660475.173      792776.233 9    553600.71347  20660474.891    20660477.8904
  24143385.704     -176079.992 7   -158710.67645  24143384.892    24143389.8364
  20585071.042    -1349848.613 9  -1045506.02747  20585070.562    20585074.0134
  21670492.584     -781330.208 9   -588029.75647  21670492.180    21670494.8674
 01  7 12 16 41  0.0000000  0  4 06 10 17 18
  20668411.755      834483.351 9    586099.73647  20668411.487    20668414.4444
  24163429.744      -70747.235 8    -76633.30145  24163428.936    24163433.9924
  20581327.361    -1369522.098 9  -1060836.02847  20581326.904    20581330.2214
  21654966.773     -862919.240 8   -651605.57147  21654966.229    21654968.9974
 01  7 12 16 41 30.0000000  0  4 06 10 17 18
  20676433.144      876635.856 9    618945.81947  20676432.893    20676435.8184
  24183496.966       34704.948 8      5537.11545  24183495.943    24183500.9634
  20577632.283    -1388940.927 9  -1075967.60447  20577631.752    20577634.9274
  21639512.303     -944132.569 9   -714888.63847  21639511.867    21639514.5574
 01  7 12 16 42  0.0000000  0  4 06 10 17 18
  20684539.136      919232.649 9    652138.09347  20684538.901    20684541.8154
  24203586.208      140273.462 8     87798.19345  24203585.186    24203590.0844
  20573985.331    -1408106.269 9  -1090901.64847  20573984.797    20573987.9104
  21624129.693    -1024969.465 9   -777878.38747  21624129.177    21624131.6754
 01  7 12 16 42 30.0000000  0  5 15 06 10 17 18
  21065767.201                                    21065768.652    21065843.1324
  20692729.906      962275.057 9    685677.60047  20692729.621    20692732.6054
  24223697.783      245957.340 8    170149.12545  24223696.533    24223701.1984
  20570386.769    -1427016.666 9  -1105637.03047  20570386.228    20570389.4314
  21608819.161    -1105426.869 9   -840572.43547  21608818.636    21608821.0564
 01  7 12 16 43  0.0000000  0  5 15 06 10 17 18
  21056652.979                                    21056656.580    21056705.7414
  20701004.650     1005759.735 9    719561.73847  20701004.463    20701007.5184
  24243829.628      351750.993 7    252585.63545  24243828.587    24243833.3794
  20566836.224    -1445675.041 9  -1120176.02947  20566835.676    20566838.9544
  21593580.686    -1185506.023 9   -902971.72047  21593580.106    21593582.4344
 01  7 12 16 43 30.0000000  0  5 15 06 10 17 18
  21047591.064                                    21047593.854    21047663.9584
  20709364.789     1049692.022 9    753794.65947  20709364.545    20709367.6124
  24263982.516      457657.619 7    335110.19445  24263981.835    24263987.1754
  20563334.641    -1464076.049 9  -1134514.49347  20563334.100    20563337.3354
  21578415.433    -1265199.631 9   -965070.59847  21578414.884    21578417.2214
 01  7 12 16 44  0.0000000  0  8 23 15 06 21 22 10 17 18
  20821921.276                                    20821922.803    20821910.9244
  21038577.196    -1031062.20956                  21038577.086    21038580.5294
  20717809.425     1094068.901 9    788374.02147  20717809.229    20717812.3324
  24663193.359    -1377101.36217  -1055098.72055  24663192.248    24663199.1604
  22843641.186                                    22843644.054    22843643.9604
  24284156.060      563672.291 7    417718.95945  24284155.489    24284161.4064
  20559881.516    -1482222.474 9  -1148654.57347  20559880.961    20559884.2504
  21563323.396    -1344508.981 8  -1026870.02247  21563322.803    21563325.1574
 01  7 12 16 44 30.0000000  0  8 23 15 06 21 22 10 17 18
  20814937.402     -872273.52457                  20814936.529    20814939.8484
  21029612.380    -1383108.93819  -1067773.11047  21029611.233    21029615.1904
  20726338.539     1138889.090 9    823298.80847  20726338.304    20726341.4294
  24644535.601    -1475149.165 7  -1131499.49645  24644534.064    24644541.4884
  22840827.040                                    22840827.594    22840827.7654
  24304349.784      669791.280 7    500408.98245  24304349.188    24304355.2894
  20556476.542    -1500115.411 9  -1162597.13247  20556476.038    20556479.2814
  21548304.297    -1423433.299 9  -1088369.44947  21548303.909    21548306.3784
 01  7 12 16 45  0.0000000  0  8 23 15 06 21 22 10 17 18
  20808042.616    -1319406.06319   -900504.62047  20808041.622    20808045.4424
  21020694.899    -1429970.016 9  -1104288.24047  21020694.036    21020697.8254
  20734950.983     1184147.596 9    858565.13447  20734950.802    20734953.8374
  24625899.862    -1573079.951 7  -1207809.14245  24625898.256    24625905.8034
  22838118.042     -872949.24255                  22838116.571    22838120.4674
  24324562.602      776007.608 8    583174.80845  24324561.826    24324567.5214
  20553119.063    -1517759.674 9  -1176345.92747  20553118.522    20553121.7384
  21533358.335    -1501975.833 9  -1149571.37047  21533357.767    21533360.1424
 01  7 12 16 45 30.0000000  0  9 23 15 06 21 26 22 10 17 18
  20801238.457    -1355161.103 9   -928365.66747  20801237.812    20801241.4634
  21011826.035    -1476576.987 9  -1140605.36247  21011825.285    21011828.6004
  20743647.243     1229846.478 9    894174.62347  20743647.032    20743650.0244
  24607286.309    -1670889.739 7  -1284024.48945  24607285.103    24607293.1924
  22310376.264    -1200259.159 8   -927060.32746  22310377.917    22310380.8384
  22835516.848    -1228000.06518   -883600.78846  22835515.552    22835519.6334
  24344793.668      882321.432 7    666016.64145  24344792.820    24344798.3894
  20549809.266    -1535152.929 9  -1189899.12447  20549808.743    20549811.9204
  21518485.533    -1580132.405 9  -1210472.54847  21518485.003    21518487.5014
 01  7 12 16 46  0.0000000  0  9 23 15 06 21 26 22 10 17 18
  20794526.311    -1390434.413 9   -955851.36347  20794525.739    20794529.2034
  21003006.789    -1522923.296 9  -1176719.37447  21003005.982    21003009.1924
  20752428.408     1275992.123 9    930132.23847  20752428.243    20752431.2694
  24588697.726    -1768570.457 7  -1360139.28845  24588696.840    24588705.1094
  22303309.973    -1237376.599 8   -955982.93246  22303313.388    22303317.8854
  22833023.994    -1241098.883 8   -893807.68146  22833022.727    22833026.7144
  24365043.512      988737.278 7    748937.99845  24365042.932    24365048.8354
  20546548.494    -1552288.557 9  -1203251.56747  20546547.971    20546551.1304
  21503687.750    -1657894.816 9  -1271066.59447  21503687.277    21503689.7134
 01  7 12 16 46 30.0000000  0  9 23 15 06 21 26 22 10 17 18
  20787906.119    -1425223.589 9   -982959.77547  20787905.543    20787909.0504
  20994237.343    -1569006.738 9  -1212628.54547  20994236.583    20994239.9154
  20761295.132     1322586.259 9    966439.32847  20761294.974    20761297.9114
  24570134.750    -1866118.509 7  -1436150.69745  24570134.090    24570142.3024
  22296356.450    -1273928.921 8   -984465.25846  22296357.912    22296361.9984
  22830640.260    -1253625.103 8   -903568.38346  22830639.077    22830643.0604
  24385313.063     1095254.481 7    831938.32145  24385312.340    24385318.5704
  20543337.200    -1569164.560 9  -1216401.71147  20543336.634    20543339.7664
  21488965.756    -1735259.242 9  -1331350.51947  21488965.299    21488967.7824
 01  7 12 16 47  0.0000000  0  9 23 15 06 21 26 22 10 17 18
  20781377.028    -1459533.262 9  -1009694.57447  20781376.572    20781380.0894
  20985516.909    -1614831.819 9  -1248336.39447  20985516.229    20985519.8404
  20770246.167     1369623.719 9   1003091.87047  20770245.958    20770248.9204
  24551596.712    -1963537.204 7  -1512061.28545  24551595.983    24551603.9024
  22289508.918    -1309918.783 8  -1012509.27246  22289509.334    22289513.2014
  22828364.622    -1265584.013 8   -912887.02946  22828363.393    22828367.4194
  24405600.031     1201866.086 7    915012.23545  24405599.556    24405606.3454
  20540174.345    -1585785.805 9  -1229353.33947  20540173.793    20540176.8694
  21474318.746    -1812229.036 9  -1391326.94447  21474318.409    21474320.8354
 01  7 12 16 47 30.0000000  0  9 23 15 06 21 26 22 10 17 18
  20774939.639    -1493362.184 9  -1036054.76347  20774939.259    20774942.6944
  20976846.147    -1660397.150 9  -1283841.84647  20976845.482    20976849.0774
  20779281.455     1417105.164 9   1040090.36247  20779281.303    20779284.4064
  24533083.735    -2060824.083 7  -1587869.15045  24533082.980    24533090.5014
  22282767.793    -1345343.045 8  -1040112.53846  22282768.210    22282772.3654
  22826196.878    -1276974.542 8   -921762.77846  22826195.913    22826199.8284
  24425905.288     1308570.650 7    998158.53145  24425904.797    24425911.5624
  20537060.018    -1602151.433 9  -1242105.77747  20537059.490    20537062.6734
  21459747.607    -1888801.434 9  -1450993.70447  21459747.206    21459749.6344
 01  7 12 16 48  0.0000000  0  9 23 15 06 21 26 22 10 17 18
  20768593.175    -1526712.891 9  -1062042.30747  20768592.792    20768596.2984
  20968224.354    -1705705.492 9  -1319147.04347  20968223.651    20968227.1454
  20788400.825     1465027.377 9   1077432.31047  20788400.689    20788403.7674
  24514596.084    -2157980.362 7  -1663575.23545  24514594.779    24514602.1254
  22276134.480    -1380202.671 8  -1067275.88646  22276134.842    22276138.9014
  22824137.009    -1287799.114 8   -930197.50746  22824136.010    22824139.9674
  24446227.613     1415363.114 7   1081373.29845  24446227.059    24446233.5304
  20533993.815    -1618264.227 9  -1254661.20747  20533993.272    20533996.5194
  21445251.701    -1964977.896 8  -1510351.92647  21445251.252    21445253.7294
 01  7 12 16 48 30.0000000  0  9 23 15 06 21 26 22 10 17 18
  20762337.784    -1559585.187 9  -1087657.06547  20762337.443    20762340.8644
  20959651.301    -1750756.755 9  -1354251.92847  20959650.616    20959654.0904
  20797604.070     1513389.953 9   1115117.41447  20797603.819    20797606.8984
  24496133.379    -2255004.152 7  -1739178.08645  24496131.990    24496139.1394
  22269608.867    -1414495.657 8  -1093997.66746  22269609.091    22269612.9714
  22822184.398    -1298057.452 8   -938191.04746  22822183.761    22822187.8464
  24466566.115     1522241.081 8   1164654.71845  24466565.479    24466571.8434
  20530975.760    -1634124.326 9  -1267019.72447  20530975.221    20530978.4394
  21430831.328    -2040757.003 8  -1569400.52647  21430830.904    21430833.5084
 01  7 12 16 49  0.0000000  0  9 23 15 06 21 26 22 10 17 18
  20756173.901    -1591977.448 9  -1112897.77647  20756173.480    20756176.8504
  20951127.700    -1795549.366 9  -1389155.24647  20951126.977    20951130.3234
  20806891.085     1562193.812 9   1153146.36047  20806890.869    20806893.9534
  24477695.996    -2351892.959 7  -1814675.74245  24477694.685    24477701.6154
  22263191.581    -1448218.400 8  -1120275.07946  22263191.813    22263195.6094
  22820340.625    -1307748.671 8   -945742.65946  22820339.837    22820343.5864
  24486921.457     1629203.684 8   1248002.04645  24486920.317    24486926.5234
  20528006.139    -1649730.206 9  -1279180.15847  20528005.607    20528008.7604
  21416487.359    -2116135.471 9  -1628136.94247  21416486.905    21416489.4114
 01  7 12 16 49 30.0000000  0  9 23 15 06 21 26 22 10 17 18
  20750101.034    -1623890.514 9  -1137765.08047  20750100.594    20750104.0184
  20942652.949    -1840084.193 9  -1423857.71647  20942652.343    20942655.5834
  20816261.941     1611437.651 9   1191518.15047  20816261.722    20816264.7284
  24459283.973    -2448646.281 7  -1890067.84245  24459282.991    24459289.9264
  22256883.100    -1481370.087 8  -1146107.51546  22256883.241    22256887.2694
  22818604.215    -1316874.106 8   -952853.39946  22818603.299    22818606.9994
  24507291.559     1736247.865 7   1331413.03945  24507290.386    24507296.5554
  20525084.682    -1665082.914 9  -1291143.30647  20525084.130    20525087.2804
  21402219.516    -2191112.845 9  -1686560.83347  21402219.122    21402221.6364
 01  7 12 16 50  0.0000000  0  9 23 15 06 21 26 22 10 17 18
  20744119.834    -1655322.272 9  -1162257.35247  20744119.355    20744122.6954
  20934227.856    -1884358.992 9  -1458357.55947  20934227.146    20934230.4404
  20825716.847     1661122.873 9   1230233.87347  20825716.616    20825719.6154
  24440898.833    -2545260.217 7  -1965351.33845  24440897.929    24440904.8894
  22250684.000    -1513946.855 8  -1171492.00846  22250684.132    22250688.0774
  22816975.595    -1325431.711 8   -959521.69146  22816974.838    22816978.7234
  24527676.443     1843373.133 7   1414887.17745  24527675.564    24527681.9374
  20522211.602    -1680180.810 9  -1302907.90447  20522211.059    20522214.3434
  21388028.883    -2265685.717 9  -1744669.51947  21388028.396    21388030.8384
 01  7 12 16 50 30.0000000  0  9 23 15 06 21 26 22 10 17 18
  20738229.932    -1686273.875 9  -1186375.46147  20738229.443    20738232.8404
  20925851.980    -1928374.785 9  -1492655.56847  20925851.245    20925854.5934
  20835255.335     1711247.887 9   1269292.29247  20835255.123    20835258.2124
  24422540.320    -2641734.751 7  -2040526.20245  24422539.298    24422546.4354
  22244594.051    -1545948.245 8  -1196428.12946  22244594.308    22244598.3024
  22815455.008    -1333422.475 8   -965748.26746  22815454.239    22815458.1204
  24548076.224     1950575.938 7   1498421.72845  24548075.541    24548081.8834
  20519386.880    -1695024.948 9  -1314474.76347  20519386.344    20519389.6214
  21373915.156    -2339853.919 9  -1802462.87747  21373914.687    21373917.0454
 01  7 12 16 51  0.0000000  0  9 23 15 06 21 26 22 10 17 18
  20732431.568    -1716744.913 9  -1210119.11547  20732431.056    20732434.3684
  20917525.136    -1972131.383 9  -1526751.61847  20917524.529    20917527.9754
  20844877.412     1761812.356 9   1308693.13747  20844877.222    20844880.2704
  24404208.168    -2738068.464 8  -2115591.38045  24404207.499    24404214.5914
  22238614.320    -1577371.984 8  -1220914.12346  22238614.597    22238618.7304
  22814042.728    -1340846.416 8   -971533.16646  22814041.698    22814045.4814
  24568490.625     2057854.150 7   1582015.04945  24568490.068    24568496.1824
  20516610.532    -1709615.288 9  -1325843.86347  20516609.996    20516613.1134
  21359878.800    -2413615.640 9  -1859939.50547  21359878.234    21359880.6634
 01  7 12 16 51 30.0000000  0  9 23 15 06 21 26 22 10 17 18
  20726724.342    -1746736.329 9  -1233489.03647  20726723.848    20726727.1714
  20909247.804    -2015629.496 9  -1560646.24047  20909247.090    20909250.5604
  20854582.943     1812814.678 9   1348435.16247  20854582.723    20854585.7094
  24385903.579    -2834260.478 8  -2190546.12145  24385902.881    24385909.7034
  22232745.016    -1608217.243 8  -1244949.37946  22232745.061    22232748.8624
  22812737.575    -1347705.213 8   -976877.70346  22812736.441    22812740.5304
  24588919.364     2165204.368 7   1665664.44845  24588918.465    24588924.4584
  20513882.291    -1723952.886 9  -1337016.02547  20513881.705    20513884.7374
  21345919.696    -2486970.563 9  -1917099.13147  21345919.178    21345921.6014
 01  7 12 16 52  0.0000000  0  9 23 15 06 21 26 22 10 17 18
  20721108.521    -1776247.788 9  -1256484.96047  20721108.025    20721111.2954
  20901019.697    -2058868.478 9  -1594338.95247  20901019.065    20901022.4944
  20864371.691     1864254.740 9   1388518.29947  20864371.456    20864374.5474
  24367626.109    -2930309.362 8  -2265389.33145  24367625.464    24367631.9384
  22226985.615    -1638481.851 8  -1268532.14446  22226985.728    22226989.6284
  22811539.683    -1353998.792 8   -981781.80646  22811538.731    22811542.8254
  24609360.851     2272624.738 7   1749368.55645  24609359.825    24609365.9024
  20511202.059    -1738037.360 9  -1347990.94047  20511201.501    20511204.5724
  21332038.365    -2559916.725 9  -1973940.26147  21332037.987    21332040.4154
 01  7 12 16 52 30.0000000  0  9 23 15 06 21 26 22 10 17 18
  20715584.390    -1805277.648 9  -1279105.61947  20715583.850    20715587.0554
  20892841.290    -2101846.704 9  -1627828.49147  20892840.637    20892844.0554
  20874243.869     1916133.411 9   1428943.19947  20874243.652    20874246.8434
  24349376.202    -3026212.078 7  -2340118.65545  24349375.718    24349382.1144
  22221337.517    -1668162.597 8  -1291659.97446  22221337.658    22221341.5834
  22810450.331    -1359725.467 8   -986244.16246  22810449.194    22810453.0494
  24629815.385     2380114.790 7   1833126.97645  24629814.274    24629820.7804
  20508570.267    -1751867.366 9  -1358767.56247  20508569.733    20508572.8814
  21318235.493    -2632451.286 9  -2030460.65647  21318235.113    21318237.5544
 01  7 12 16 53  0.0000000  0  9 23 15 06 21 26 22 10 17 18
  20710151.593    -1833827.218 9  -1301352.02147  20710151.071    20710154.2834
  20884712.325    -2144565.463 9  -1661115.82947  20884711.595    20884714.9244
  20884199.223     1968448.876 9   1469708.44847  20884199.040    20884202.1734
  24331154.282    -3121968.119 7  -2414733.67845  24331153.902    24331160.3114
  22215800.696    -1697259.101 8  -1314332.53046  22215800.711    22215804.6724
  22809468.075    -1364886.526 8   -990265.78846  22809467.054    22809471.0774
  24650282.585     2487670.774 7   1916936.73445  24650281.625    24650288.1334
  20505986.628    -1765444.330 9  -1369347.01947  20505986.081    20505989.3364
  21304510.958    -2704574.079 9  -2086660.18747  21304510.534    21304513.0334
 01  7 12 16 53 30.0000000  0  9 23 15 06 21 26 22 10 17 18
  20704810.225    -1861895.732 9  -1323223.57947  20704809.789    20704813.0314
  20876632.754    -2187023.456 9  -1694199.98147  20876632.079    20876635.3894
  20894237.766     2021201.498 9   1510814.34147  20894237.600    20894240.7514
  24312960.631    -3217575.754 7  -2489233.05845  24312960.269    24312966.8514
  22210375.329    -1725768.776 8  -1336547.81546  22210375.457    22210379.4834
  22808593.539    -1369481.824 8   -993846.54646  22808592.690    22808596.5544
  24670762.163     2595291.462 7   2000796.92545  24670761.257    24670767.7574
  20503451.417    -1778767.364 9  -1379728.60647  20503450.826    20503454.0604
  21290865.175    -2776282.882 9  -2142537.12447  21290864.771    21290867.1994
 01  7 12 16 54  0.0000000  0  9 23 15 06 21 26 22 10 17 18
  20699560.431    -1889483.706 9  -1344720.68147  20699560.013    20699563.1694
  20868602.568    -2229221.078 9  -1727081.24347  20868602.017    20868605.4124
  20904359.242     2074390.184 9   1552260.03247  20904359.063    20904362.2854
  24294795.282    -3313033.844 7  -2563615.90945  24294794.954    24294801.8814
  22205062.130    -1753690.364 8  -1358304.87046  22205062.314    22205066.1394
  22807826.436    -1373512.616 8   -996987.43846  22807825.651    22807829.5454
  24691253.308     2702973.853 7   2084705.18445  24691252.563    24691259.1424
  20500964.370    -1791836.954 9  -1389912.70847  20500963.838    20500966.9684
  21277298.331    -2847576.841 9  -2198090.82847  21277298.003    21277300.4064
 01  7 12 16 54 30.0000000  0  9 23 15 06 21 26 22 10 17 18
  20694402.290    -1916590.094 9  -1365842.53647  20694401.864    20694404.9504
  20860622.473    -2271157.558 9  -1759759.01947  20860621.822    20860625.2184
  20914563.857     2128015.427 9   1594045.90047  20914563.679    20914566.7934
  24276658.827    -3408339.964 7  -2637880.37345  24276658.779    24276665.7374
  22199861.410    -1781021.195 8  -1379601.60246  22199861.546    22199865.1634
  22807166.901    -1376977.967 8   -999687.73846  22807166.267    22807170.1454
  24711755.618     2810716.877 7   2168660.69845  24711755.098    24711762.1584
  20498525.697    -1804652.337 9  -1399898.72147  20498525.156    20498528.2564
  21263810.971    -2918453.464 9  -2253319.32047  21263810.580    21263813.0044
 01  7 12 16 55  0.0000000  0  9 23 15 06 21 26 22 10 17 18
  20689335.500    -1943216.100 9  -1386590.05447  20689335.081    20689338.1544
  20852691.938    -2312833.560 9  -1792233.82947  20852691.282    20852694.4914
  20924851.305     2182075.595 9   1636170.66747  20924851.067    20924854.1294
  24258551.329    -3503493.317 7  -2712025.78645  24258551.534    24258558.5194
  22194773.069    -1807760.735 8  -1400437.58546  22194773.168    22194776.7344
  22806614.647    -1379878.897 8  -1001948.21146  22806614.170    22806618.0034
  24732269.723     2918517.127 7   2252660.80345  24732269.206    24732276.1424
  20496135.178    -1817214.456 9  -1409687.38447  20496134.641    20496137.7804
  21250403.049    -2988912.665 9  -2308222.55347  21250402.662    21250405.0494
 01  7 12 16 55 30.0000000  0  8 23 15 06 21 26 22 17 18
  20684360.689    -1969359.428 9  -1406961.46947  20684360.235    20684363.2804
  20844811.329    -2354246.421 9  -1824503.59647  20844810.658    20844813.9814
  20935221.644     2236572.189 9   1678635.50447  20935221.428    20935224.5514
  24240473.967    -3598490.372 7  -2786049.40745  24240474.109    24240480.9394
  22189797.788    -1833905.092 8  -1420809.76546  22189797.863    22189801.6914
  22806170.400    -1382213.429 8  -1003767.34846  22806169.967    22806173.7774
  20493793.263    -1829521.094 9  -1419276.96747  20493792.723    20493795.9354
  21237075.246    -3058950.677 9  -2362797.58047  21237074.839    21237077.1944
 01  7 12 16 56  0.0000000  0  8 23 15 06 21 26 22 17 18
  20679476.914    -1995023.678 9  -1426959.56747  20679476.446    20679479.5414
  20836980.152    -2395399.643 9  -1856571.03247  20836979.469    20836982.8114
  20945674.291     2291500.962 9   1721437.10847  20945674.081    20945677.2644
  24222426.275    -3693333.067 8  -2859952.71445  24222426.193    24222432.6174
  22184935.549    -1859456.106 8  -1440719.60746  22184935.678    22184939.4764
  22805833.430    -1383986.066 8  -1005148.65746  22805832.800    22805836.5444
  20491499.332    -1841575.912 9  -1428670.32947  20491498.820    20491502.0164
  21223827.162    -3128569.690 9  -2417046.12047  21223826.770    21223829.1044
 01  7 12 16 56 30.0000000  0  8 23 15 06 21 26 22 17 18
  20674684.279    -2020209.188 9  -1446584.63647  20674683.834    20674686.8824
  20829198.445    -2436293.313 9  -1888436.24447  20829197.776    20829201.0684
  20956208.980     2346861.166 9   1764574.88447  20956208.799    20956212.0154
  24204408.270    -3788020.194 8  -2933734.74845  24204408.037    24204414.1444
  22180186.764    -1884412.531 8  -1460166.15146  22180186.836    22180190.4454
  22805602.923    -1385197.646 8  -1006092.75946  22805602.270    22805605.8864
  20489253.407    -1853379.097 9  -1437867.62347  20489252.855    20489255.9274
  21210659.184    -3197768.629 9  -2470967.33747  21210658.647    21210660.9364
 01  7 12 16 57  0.0000000  0  8 23 15 06 21 26 22 17 18
  20669983.143    -2044914.204 9  -1465835.27547  20669982.649    20669985.6874
  20821466.440    -2476925.346 9  -1920097.56547  20821465.729    20821469.0094
  20966825.950     2402654.005 9   1808049.78847  20966825.769    20966829.0004
  24186419.961    -3882549.064 8  -3007393.45845  24186419.720    24186425.8344
  22175551.367    -1908770.837 8  -1479146.61546  22175551.495    22175555.2904
  22805479.456    -1385846.308 8  -1006598.22346  22805478.676    22805482.5254
  20487055.660    -1864928.893 9  -1446867.46547  20487055.087    20487058.0604
  21197571.571    -3266544.363 9  -2524558.79247  21197571.107    21197573.3704
 01  7 12 16 57 30.0000000  0  8 23 15 06 21 26 22 17 18
  20665373.394    -2069138.981 9  -1484711.71947  20665372.840    20665375.8554
  20813784.237    -2517295.808 9  -1951555.06747  20813783.508    20813786.8194
  20977525.251     2458878.751 9   1851861.23447  20977525.081    20977528.2844
  24168462.274    -3976918.185 8  -3080927.70045  24168461.992    24168468.1524
  22171030.468    -1932529.593 8  -1497659.93146  22171030.564    22171034.1304
  22805463.503    -1385932.363 8  -1006665.31946  22805462.616    22805466.3114
  20484905.974    -1876225.464 9  -1455669.98947  20484905.385    20484908.4354
  21184564.655    -3334895.644 9  -2577819.49347  21184564.222    21184566.4864
 01  7 12 16 58  0.0000000  0  8 23 15 06 21 26 22 17 18
  20660854.490    -2092885.411 9  -1503215.42147  20660853.998    20660856.9974
  20806151.285    -2557406.104 9  -1982809.85047  20806150.691    20806154.0854
  20988306.218     2515532.780 9   1896007.18347  20988306.028    20988309.2324
  24150535.021    -4071127.784 8  -3154337.67545  24150534.483    24150540.6004
  22166623.088    -1955689.322 8  -1515706.43746  22166623.206    22166626.8934
  22805554.029    -1385458.274 8  -1006295.90246  22805552.855    22805556.5584
  20482804.066    -1887270.457 9  -1464276.47247  20482803.520    20482806.6364
  21171638.423    -3402822.981 9  -2630749.84947  21171638.100    21171640.2134
 01  7 12 16 58 30.0000000  0  8 23 15 06 21 26 22 17 18
  20656427.392    -2116150.138 9  -1521343.76047  20656426.873    20656429.8654
  20798569.032    -2597252.369 9  -2013858.89747  20798568.251    20798571.6954
  20999169.433     2572618.928 9   1940489.84247  20999169.247    20999172.4314
  24132638.820    -4165172.441 8  -3227619.16945  24132638.322    24132644.2364
  22162331.015    -1978244.698 8  -1533282.03346  22162331.147    22162334.6114
  22805750.831    -1384421.523 8  -1005488.07846  22805750.077    22805753.9194
  20480750.707    -1898060.445 9  -1472684.26147  20480750.202    20480753.3604
  21158793.977    -3470321.235 9  -2683345.86347  21158793.632    21158795.7324
 01  7 12 16 59  0.0000000  0  8 23 15 06 21 26 22 17 18
  20652091.438    -2138935.502 9  -1539098.58647  20652090.945    20652093.9474
  20791036.392    -2636836.621 9  -2044703.77247  20791035.725    20791038.9614
  21010114.344     2630134.439 9   1985307.08147  21010114.141    21010117.3144
  24114773.506    -4259053.527 7  -3300773.20045  24114773.280    24114778.9914
  22158153.801    -2000196.577 8  -1550387.35746  22158153.770    22158157.3564
  22806054.864    -1382824.735 8  -1004243.85546  22806053.788    22806057.6624
  20478745.627    -1908597.590 9  -1480895.02947  20478745.089    20478748.1954
  21146030.862    -3537391.729 9  -2735608.54447  21146030.538    21146032.6944
 01  7 12 16 59 30.0000000  0  8 23 15 06 21 26 22 17 18
  20647847.114    -2161239.835 9  -1556478.57547  20647846.633    20647849.6134
  20783553.917    -2676157.055 9  -2075343.08947  20783553.245    20783556.5674
  21021141.085     2688080.374 9   2030459.70847  21021140.897    21021144.1074
  24096940.295    -4352767.884 7  -3373797.28645  24096939.866    24096945.6384
  22154091.599    -2021541.813 8  -1567019.97746  22154091.731    22154095.5344
  22806465.351    -1380666.096 8  -1002561.83246  22806464.702    22806468.4094
  20476789.064    -1918880.085 9  -1488907.37147  20476788.504    20476791.5614
  21133349.682    -3604031.439 9  -2787535.54747  21133349.387    21133351.5564
 01  7 12 17  0  0.0000000  0  8 23 15 06 21 26 22 17 18
  20643693.743    -2183065.704 9  -1573485.73247  20643693.259    20643696.2764
  20776121.320    -2715215.753 9  -2105778.43647  20776120.561    20776123.8754
  21032249.218     2746453.845 9   2075945.48447  21032249.027    21032252.2644
  24079138.317    -4446316.317 7  -3446692.13145  24079137.960    24079143.9114
  22150145.285    -2042281.092 8  -1583180.47046  22150145.413    22150148.8444
  22806983.046    -1377948.519 8  -1000444.23046  22806981.976    22806985.6524
  20474880.465    -1928910.230 9  -1496723.07747  20474879.906    20474882.9104
  21120750.303    -3670241.266 9  -2839127.59547  21120750.039    21120752.2484
 01  7 12 17  0 30.0000000  0  8 23 15 06 21 26 22 17 18
  20639631.664    -2204412.298 9  -1590119.43147  20639631.151    20639634.1794
  20768738.701    -2754011.547 9  -2136008.93247  20768737.982    20768741.3614
  21043438.703     2805254.831 9   2121764.40647  21043438.500    21043441.7664
  24061368.931    -4539696.786 8  -3519456.05445  24061368.312    24061374.2924
  22146314.478    -2062412.296 8  -1598867.09446  22146314.406    22146318.0854
  22807605.771    -1374671.964 8   -997891.15446  22807605.283    22807608.9644
  20473019.940    -1938687.150 9  -1504341.45447  20473019.374    20473022.4544
  21108233.326    -3736018.777 9  -2890382.78147  21108233.014    21108235.1364
 01  7 12 17  1  0.0000000  0  8 23 15 06 21 26 22 17 18
  20635660.631    -2225279.557 9  -1606379.61647  20635660.170    20635663.2914
  20761406.274    -2792543.756 9  -2166034.03047  20761405.578    20761408.8854
  21054709.642     2864482.862 9   2167916.07047  21054709.417    21054712.5374
  24043631.383    -4632907.138 7  -3592087.41945  24043630.821    24043636.9184
  22142599.415    -2081933.647 8  -1614078.56946  22142599.617    22142603.3194
  22808336.127    -1370837.207 8   -994903.02446  22808335.179    22808338.5914
  20471207.638    -1948210.398 9  -1511762.17447  20471207.118    20471210.3114
  21095798.841    -3801362.796 9  -2941300.15847  21095798.433    21095800.5284
 01  7 12 17  1 30.0000000  0  8 23 15 06 21 26 22 17 18
  20631780.811    -2245668.243 9  -1622266.90047  20631780.346    20631783.4254
  20754124.115    -2830812.564 9  -2195853.88947  20754123.369    20754126.7014
  21066061.369     2924136.862 9   2214399.65747  21066061.160    21066064.4584
  24025926.364    -4725947.060 8  -3664585.96445  24025925.937    24025931.8554
  22139001.056    -2100844.427 8  -1628814.25946  22139001.079    22139004.6474
  22809171.576    -1366444.719 8   -991480.37046  22809170.859    22809174.8034
  20469443.587    -1957480.511 9  -1518985.63947  20469443.039    20469446.2504
  21083446.978    -3866272.479 9  -2991879.08947  21083446.524    21083448.6574
 01  7 12 17  2  0.0000000  0  8 23 15 06 21 26 22 17 18
  20627992.891    -2265573.568 9  -1637777.52747  20627992.438    20627995.5554
  20746892.899    -2868812.884 9  -2225464.52947  20746892.165    20746895.4294
  21077494.889     2984220.930 9   2261218.36547  21077494.744    21077498.2294
  24008255.194    -4818809.321 8  -3736946.09245  24008254.851    24008260.6804
  22135519.786    -2119138.209 8  -1643069.13846  22135519.848    22135523.4504
  22810114.788    -1361490.074 8   -987619.60146  22810113.847    22810117.8694
  20467728.705    -1966492.440 9  -1526007.92847  20467728.157    20467731.3774
  21071178.892    -3930741.576 9  -3042114.72047  21071178.487    21071180.6174
 01  7 12 17  2 30.0000000  0  8 23 15 06 21 26 22 17 18
  20624295.604    -2285003.095 9  -1652917.40447  20624295.177    20624298.2404
  20739711.263    -2906551.698 9  -2254871.40047  20739710.587    20739713.9444
  21089008.939     3044726.930 9   2308365.85047  21089008.763    21089012.1474
  23990616.892    -4911500.315 8  -3809172.74445  23990616.422    23990622.2474
  22132155.084    -2136820.943 8  -1656847.88046  22132155.048    22132158.4994
  22811162.844    -1355981.272 8   -983327.06846  22811161.932    22811166.1774
  20466061.585    -1975253.499 9  -1532834.73147  20466061.051    20466064.1664
  21058993.490    -3994776.092 9  -3092011.72647  21058993.062    21058995.1844
 01  7 12 17  3  0.0000000  0  8 23 15 06 21 26 22 17 18
  20620689.133    -2303955.294 9  -1667685.34347  20620688.634    20620691.7534
  20732579.830    -2944027.388 9  -2284073.23347  20732579.174    20732582.5244
  21100603.399     3105655.743 9   2355842.80647  21100603.136    21100606.5194
  23973011.512    -5004016.690 8  -3881263.34245  23973011.010    23973016.9314
  22128906.672    -2153889.634 8  -1670148.14046  22128906.797    22128910.4334
  22812316.737    -1349917.890 8   -978602.38046  22812315.832    22812319.9754
  20464442.484    -1983761.857 9  -1539464.62747  20464441.982    20464445.0224
  21046891.359    -4058373.240 9  -3141567.92747  21046890.921    21046893.1044
 01  7 12 17  3 30.0000000  0  8 23 15 06 21 26 22 17 18
  20617173.374    -2322430.871 9  -1682081.87747  20617172.868    20617175.9914
  20725498.565    -2981239.833 9  -2313069.94547  20725497.926    20725501.2824
  21112278.040     3167006.280 9   2403648.37447  21112277.814    21112281.1514
  23955439.200    -5096357.535 8  -3953217.16145  23955438.945    23955445.0374
  22125775.900    -2170343.510 8  -1682969.37346  22125775.894    22125779.2724
  22813576.193    -1343300.911 8   -973446.32546  22813575.071    22813579.0434
  20462871.446    -1992017.957 9  -1545897.95347  20462870.919    20462873.9884
  21034872.566    -4121532.393 9  -3190782.82247  21034872.111    21034874.2924
 01  7 12 17  4  0.0000000  0  8 23 15 06 21 26 22 17 18
  20613748.512    -2340428.773 9  -1696106.21347  20613747.989    20613751.1164
  20718467.801    -3018187.369 9  -2341860.24247  20718467.104    20718470.4834
  21124033.020     3228779.244 9   2451783.10647  21124032.846    21124036.1954
  23937900.685    -5188520.561 8  -4025032.45345  23937900.876    23937906.9854
  22122762.055    -2186180.096 8  -1695309.57546  22122762.041    22122765.6184
  22814940.633    -1336129.218 8   -967858.02246  22814939.637    22814943.7194
  20461348.597    -2000020.399 9  -1552133.63047  20461348.054    20461351.2024
  21022937.572    -4184251.017 9  -3239654.45947  21022937.104    21022939.3184
 01  7 12 17  4 30.0000000  0  8 23 15 06 21 26 22 17 18
  20610414.377    -2357949.359 9  -1709758.59947  20610413.897    20610417.0564
  20711487.463    -3054869.919 9  -2370444.03747  20711486.776    20711490.0674
  21135868.219     3290973.587 9   2500246.18947  21135868.103    21135871.4874
  23920397.050    -5280503.787 7  -4096707.59145  23920396.914    23920403.0944
  22119866.091    -2201398.095 8  -1707167.75446  22119866.205    22119869.8334
  22816410.853    -1328403.647 8   -961838.13146  22816409.898    22816413.8344
  20459873.986    -2007769.092 9  -1558171.56947  20459873.465    20459876.7034
  21011086.648    -4246527.709 9  -3288181.74647  21011086.218    21011088.3544
 01  7 12 17  5  0.0000000  0  9 23 15 03 06 21 26 22 17 18
  20607170.181    -2374998.303 9  -1723043.48447  20607169.673    20607172.7274
  20704556.406    -3091292.516 9  -2398825.28647  20704555.774    20704559.0524
  24621277.629    -2127698.86317  -1645327.19455  24621277.813    24621282.7234
  21147782.504     3353583.001 9   2549032.68947  21147782.335    21147785.6564
  23902926.650    -5372310.826 8  -4168245.47245  23902926.539    23902932.7804
  22117087.350    -2216001.725 8  -1718547.20446  22117087.419    22117090.8054
  22817985.379    -1320130.609 8   -955391.65446  22817984.378    22817988.3324
  20458446.629    -2015269.390 9  -1564015.96547  20458446.152    20458449.4464
  20999318.992    -4308366.942 9  -3336368.15847  20999318.614    20999320.6744
 01  7 12 17  5 30.0000000  0  9 23 15 03 06 21 26 22 17 18
  20604016.629    -2391570.058 9  -1735956.52947  20604016.117    20604019.1914
  20697676.000    -3127448.990 9  -2426999.16347  20697675.298    20697678.6894
  24601662.450    -2230778.166 7  -1725648.65845  24601662.464    24601667.4654
  21159776.739     3416612.600 9   2598146.60447  21159776.501    21159779.8194
  23885491.307    -5463935.185 8  -4239640.98045  23885490.899    23885497.2754
  22114426.502    -2229983.930 8  -1729442.43246  22114426.611    22114429.9524
  22819664.695    -1311305.299 8   -948514.80746  22819663.925    22819667.9164
  20457067.855    -2022515.194 9  -1569662.05147  20457067.387    20457070.6214
  20987635.919    -4369761.465 9  -3384208.01547  20987635.572    20987637.7604
 01  7 12 17  6  0.0000000  0  9 23 15 03 06 21 26 22 17 18
  20600953.837    -2407664.927 9  -1748497.97747  20600953.377    20600956.4714
  20690846.198    -3163339.161 9  -2454965.52447  20690845.586    20690848.9504
  24582060.599    -2333785.016 7  -1805913.70845  24582060.554    24582065.9694
  21171850.603     3480061.643 8   2647587.36747  21171850.403    21171853.7864
  23868090.753    -5555375.149 8  -4310892.85245  23868090.485    23868096.8174
  22111884.429    -2243343.595 8  -1739852.57946  22111884.520    22111887.7304
  22821449.152    -1301928.104 8   -941207.92046  22821448.301    22821452.4884
  20455737.531    -2029506.499 9  -1575109.83047  20455737.018    20455740.1884
  20976037.736    -4430710.060 9  -3431700.39947  20976037.451    20976039.6664
 01  7 12 17  6 30.0000000  0  9 23 15 03 06 21 26 22 17 18
  20597981.718    -2423283.669 9  -1760668.41747  20597981.234    20597984.3194
  20684067.115    -3198963.169 9  -2482724.49847  20684066.479    20684069.9654
  24562472.793    -2436717.643 7  -1886120.92345  24562473.074    24562478.7084
  21184004.223     3543929.049 9   2697354.12947  21184004.029    21184007.4264
  23850725.510    -5646629.567 8  -4382000.11345  23850725.307    23850731.5694
  22109460.845    -2256079.870 8  -1749776.94346  22109460.889    22109464.1624
  22823338.443    -1291999.816 8   -933471.65046  22823337.612    22823341.7874
  20454455.612    -2036243.405 9  -1580359.37347  20454455.105    20454458.1924
  20964524.637    -4491212.104 9  -3478844.84047  20964524.302    20964526.4494
 01  7 12 17  7  0.0000000  0  9 23 15 03 06 21 26 22 17 18
  20595100.104    -2438426.984 9  -1772468.39647  20595099.589    20595102.6034
  20677338.949    -3234320.750 9  -2510275.85447  20677338.247    20677341.6414
  24542900.274    -2539574.220 7  -1966268.87145  24542900.313    24542905.8304
  21196237.183     3608213.477 9   2747445.84547  21196237.011    21196240.3684
  23833395.793    -5737697.957 8  -4452962.42945  23833395.673    23833401.7864
  22107155.865    -2268192.009 8  -1759214.98446  22107155.924    22107159.4014
  22825332.267    -1281521.916 8   -925307.05646  22825331.423    22825335.5244
  20453221.952    -2042726.198 9  -1585410.91147  20453221.429    20453224.5844
  20953096.496    -4551266.940 9  -3525640.80647  20953096.213    20953098.3494
 01  7 12 17  7 30.0000000  0  9 23 15 03 06 21 26 22 17 18
  20592308.608    -2453096.624 9  -1783899.27247  20592308.042    20592311.0624
  20670661.216    -3269413.025 9  -2537620.48147  20670660.539    20670663.8984
  24523342.592    -2642354.079 7  -2046357.00745  24523341.874    24523347.4374
  21208548.985     3672912.825 9   2797860.86347  21208548.877    21208552.3324
  23816101.838    -5828579.930 8  -4523779.48145  23816101.466    23816107.4804
  22104969.836    -2279680.439 8  -1768167.03646  22104969.778    22104973.3054
  22827429.948    -1270496.894 8   -916716.17646  22827429.289    22827433.6624
  20452036.343    -2048956.244 9  -1590265.49947  20452035.830    20452039.0314
  20941753.508    -4610874.520 9  -3572088.25147  20941753.266    20941755.4474
 01  7 12 17  8  0.0000000  0  9 23 15 03 06 21 26 22 17 18
  20589607.355    -2467291.941 9  -1794960.55047  20589606.772    20589609.8114
  20664034.134    -3304238.632 9  -2564757.32547  20664033.467    20664036.7044
  24503799.052    -2745054.411 7  -2126383.20845  24503798.692    24503804.1754
  21220939.819     3738027.120 9   2848599.22047  21220939.699    21220943.3364
  23798843.664    -5919273.094 8  -4594449.41145  23798843.094    23798848.9344
  22102902.488    -2290543.152 8  -1776631.49446  22102902.479    22102906.3144
  22829632.660    -1258924.810 8   -907698.99646  22829631.754    22829635.8974
  20450899.104    -2054932.454 9  -1594922.29847  20450898.568    20450901.7924
  20930496.032    -4670032.865 9  -3618185.64247  20930495.769    20930497.9814
 01  7 12 17  8 30.0000000  0  9 23 15 03 06 21 26 22 17 18
  20586996.146    -2481013.490 9  -1805652.66047  20586995.619    20586998.6544
  20657457.933    -3338797.612 9  -2591686.39647  20657457.190    20657460.3324
  24484271.421    -2847673.322 7  -2206345.94845  24484271.102    24484276.5764
  21233409.548     3803555.259 9   2899660.04947  21233409.376    21233413.0124
  23781621.199    -6009776.510 8  -4664971.48745  23781620.707    23781626.5254
  22100954.589    -2300779.368 8  -1784607.79946  22100954.597    22100958.4054
  22831938.341    -1246806.374 8   -898256.11346  22831937.609    22831941.9014
  20449810.217    -2060654.944 9  -1599381.39447  20449809.701    20449812.8604
  20919324.211    -4728741.323 9  -3663932.47347  20919323.913    20919326.1324
 01  7 12 17  9  0.0000000  0  9 23 15 03 06 21 26 22 17 18
  20584475.197    -2494261.140 9  -1815975.48947  20584474.675    20584477.7034
  20650932.256    -3373089.212 9  -2618407.12447  20650931.657    20650934.7944
  24464759.283    -2950208.194 7  -2286243.20845  24464759.180    24464764.7864
  21245958.027     3869496.845 9   2951043.05147  21245957.809    21245961.2544
  23764435.430    -6100088.017 8  -4735344.01845  23764434.924    23764440.7494
  22099126.308    -2310387.546 8  -1792094.70846  22099126.273    22099129.9904
  22834348.295    -1234141.695 8   -888387.56646  22834347.679    22834351.7934
  20448769.836    -2066122.961 9  -1603642.20447  20448769.291    20448772.4404
  20908238.317    -4786998.273 9  -3709327.46747  20908237.978    20908240.1974
 01  7 12 17  9 30.0000000  0  9 23 15 03 06 21 26 22 17 18
  20582044.005    -2507036.794 9  -1825930.53747  20582043.498    20582046.6064
  20644457.366    -3407114.654 9  -2644920.45047  20644456.690    20644460.0154
  24445264.078    -3052658.194 7  -2366074.30545  24445263.386    24445269.0554
  21258584.582     3935849.362 9   3002746.27247  21258584.328    21258587.7244
  23747286.340    -6190207.669 8  -4805567.03245  23747285.756    23747291.3934
  22097417.314    -2319368.212 8  -1799092.62446  22097417.346    22097421.1544
  22836862.113    -1220933.644 8   -878095.61546  22836861.150    22836865.2334
  20447777.578    -2071337.962 9  -1607705.85447  20447777.008    20447780.0814
  20897238.286    -4844804.044 9  -3754370.90147  20897237.923    20897240.1424
 01  7 12 17 10  0.0000000  0  9 23 15 03 06 21 26 22 17 18
  20579702.744    -2519340.495 9  -1835517.82947  20579702.239    20579705.3124
  20638033.296    -3440873.038 9  -2671225.68847  20638032.658    20638036.0574
  24425784.682    -3155020.616 7  -2445837.20045  24425784.222    24425790.1104
  21271289.126     4002612.394 9   3054769.36247  21271288.933    21271292.2994
  23730174.027    -6280134.276 8  -4875639.63545  23730173.253    23730178.9154
  22095828.213    -2327720.100 8  -1805600.59346  22095828.137    22095831.7894
  22839478.742    -1207183.074 8   -867380.89746  22839477.998    22839482.1424
  20446833.472    -2076299.248 9  -1611571.80847  20446832.882    20446836.0004
  20886324.351    -4902157.276 9  -3799061.70347  20886323.959    20886326.1684
 01  7 12 17 10 30.0000000  0  9 23 15 03 06 21 26 22 17 18
  20577451.213    -2531171.959 9  -1844737.14447  20577450.737    20577453.7734
  20631660.192    -3474363.388 9  -2697322.06147  20631659.599    20631663.0864
  24406322.643    -3257292.872 7  -2525529.82145  24406322.286    24406328.2774
  21284071.888     4069785.782 8   3107112.20947  21284071.684    21284075.0634
  23713098.497    -6369865.357 8  -4945559.87245  23713097.984    23713103.6764
  22094358.799    -2335441.333 8  -1811617.15646  22094358.803    22094362.4604
  22842198.488    -1192889.884 8   -856243.39546  22842197.716    22842202.1694
  20445937.717    -2081006.039 9  -1615239.44247  20445937.182    20445940.3574
  20875496.806    -4959056.277 9  -3843398.55647  20875496.395    20875498.5874
 01  7 12 17 11  0.0000000  0  9 23 15 03 06 21 26 22 17 18
  20575289.506    -2542531.934 9  -1853589.06847  20575289.034    20575292.0744
  20625338.478    -3507585.666 9  -2723209.56047  20625337.786    20625341.2284
  24386878.044    -3359472.849 7  -2605150.52145  24386877.895    24386884.2934
  21296932.399     4137368.251 8   3159773.82347  21296932.151    21296935.6584
  23696060.684    -6459399.737 8  -5015326.82745  23696060.089    23696065.8224
  22093009.723    -2342531.411 8  -1817141.92646  22093009.717    22093013.3814
  22845021.446    -1178054.973 8   -844683.78046  22845020.870    22845025.2054
  20445090.447    -2085458.433 9  -1618708.85247  20445089.899    20445093.0734
  20864755.907    -5015500.168 9  -3887380.79447  20864755.490    20864757.6914
 01  7 12 17 11 30.0000000  0  9 23 15 03 06 21 26 22 17 18
  20573217.254    -2553421.688 9  -1862074.58447  20573216.768    20573219.8514
  20619067.637    -3540540.053 9  -2748888.30547  20619066.937    20619070.1254
  24367451.527    -3461559.058 7  -2684698.18545  24367451.734    24367457.9904
  21309870.534     4205358.198 8   3212752.95147  21309870.314    21309873.8174
  23679060.234    -6548737.160 8  -5084940.32545  23679059.668    23679065.4634
  22091780.482    -2348990.308 8  -1822174.84446  22091780.559    22091784.0974
  22847947.297    -1162680.065 8   -832703.34946  22847946.616    22847951.0224
  20444291.443    -2089657.025 9  -1621980.50447  20444290.942    20444294.1444
  20854101.722    -5071488.352 9  -3931007.92947  20854101.286    20854103.4794
 01  7 12 17 12  0.0000000  0  9 23 15 03 06 21 26 22 17 18
  20571234.467    -2563841.606 9  -1870193.99647  20571233.961    20571236.9744
  20612847.611    -3573226.166 9  -2774358.01247  20612846.913    20612850.1794
  24348043.567    -3563549.214 7  -2764170.99545  24348043.720    24348049.6504
  21322886.089     4273754.781 8   3266048.93647  21322885.783    21322889.3124
  23662097.822    -6637876.003 8  -5154399.08646  23662097.121    23662102.9944
  22090671.638    -2354816.992 8  -1826715.11046  22090671.806    22090675.3654
  22850975.232    -1146766.661 8   -820303.33446  22850974.899    22850979.3544
  20443540.961    -2093601.418 9  -1625054.07047  20443540.392    20443543.5714
  20843534.343    -5127020.110 9  -3974279.40847  20843533.932    20843536.1224
 01  7 12 17 12 30.0000000  0  9 23 15 03 06 21 26 22 17 18
  20569340.806    -2573793.229 9  -1877948.50047  20569340.232    20569343.2844
  20606678.448    -3605644.942 9  -2799619.39447  20606677.724    20606681.0684
  24328654.212    -3665442.235 7  -2843568.09245  24328654.214    24328659.8984
  21335978.465     4342555.816 8   3319660.07347  21335978.250    21335981.6104
  23645173.036    -6726815.956 8  -5223702.89446  23645172.467    23645178.3954
  22089683.347    -2360011.685 8  -1830762.92446  22089683.350    22089687.0854
  22854106.004    -1130316.995 8   -807485.47046  22854105.262    22854109.6654
  20442838.553    -2097292.512 9  -1627930.26747  20442838.038    20442841.1484
  20833053.775    -5182095.505 9  -4017195.28047  20833053.377    20833055.6124
 01  7 12 17 13  0.0000000  0  9 23 15 03 06 21 26 22 17 18
  20567536.197    -2583276.184 9  -1885337.81147  20567535.651    20567538.7544
  20600560.366    -3637795.143 9  -2824671.49947  20600559.699    20600563.1124
  24309283.729    -3767235.226 7  -2922887.27545  24309283.773    24309289.3634
  21349147.734     4411761.115 9   3373586.24947  21349147.582    21349151.0384
  23628286.600    -6815554.694 8  -5292849.89646  23628286.138    23628291.9304
  22088815.296    -2364572.838 8  -1834317.08346  22088815.292    22088819.0544
  22857338.343    -1113330.788 8   -794249.51646  22857337.714    22857341.8054
  20442184.630    -2100729.419 9  -1630608.39647  20442184.090    20442187.2054
  20822660.442    -5236712.796 9  -4059754.19447  20822660.092    20822662.2454
 01  7 12 17 13 30.0000000  0  9 23 15 03 06 21 26 22 17 18
  20565820.589    -2592291.663 9  -1892362.86447  20565820.109    20565823.1214
  20594493.439    -3669676.805 9  -2849514.35247  20594492.809    20594496.2064
  24289932.776    -3868926.490 7  -3002127.14445  24289932.530    24289938.1244
  21362393.977     4481369.270 9   3427826.30847  21362393.782    21362397.1614
  23611438.597    -6904091.247 8  -5361839.34646  23611438.112    23611443.9864
  22088067.809    -2368500.252 8  -1837377.43346  22088067.849    22088071.6674
  22860672.748    -1095809.564 8   -780596.61746  22860671.777    22860676.0304
  20441578.837    -2103912.569 9  -1633088.79647  20441578.350    20441581.4134
  20812354.343    -5290871.361 9  -4101955.66147  20812354.027    20812356.1564
 01  7 12 17 14  0.0000000  0  9 23 15 03 06 21 26 22 17 18
  20564193.959    -2600839.649 9  -1899023.62747  20564193.485    20564196.5324
  20588477.953    -3701289.266 9  -2874147.44547  20588477.224    20588480.5924
  24270601.484    -3970513.265 7  -3081285.64345  24270601.232    24270606.6474
  21375716.565     4551379.717 9   3482379.86647  21375716.399    21375719.7834
  23594629.329    -6992424.403 8  -5430670.29845  23594628.669    23594634.6094
  22087441.373    -2371792.786 8  -1839943.07546  22087441.362    22087445.2834
  22864108.223    -1077754.151 8   -766527.54446  22864107.577    22864112.0894
  20441021.648    -2106841.171 9  -1635370.83547  20441021.096    20441024.1724
  20802135.818    -5344569.778 9  -4143798.57547  20802135.581    20802137.7144
 01  7 12 17 14 30.0000000  0  9 23 15 03 06 21 26 22 17 18
  20562656.174    -2608921.111 9  -1905320.87347  20562655.660    20562658.6984
  20582513.515    -3732632.558 9  -2898570.78647  20582512.893    20582516.1704
  24251290.189    -4071993.791 7  -3160361.37945  24251290.012    24251295.1924
  21389115.469     4621790.997 8   3537245.74847  21389115.304    21389118.5784
  23577858.731    -7080552.723 8  -5499341.66445  23577858.168    23577864.1784
  22086935.767    -2374450.271 8  -1842013.84346  22086935.762    22086939.6144
  22867645.836    -1059166.678 8   -752043.81446  22867644.939    22867649.0784
  20440512.678    -2109515.550 9  -1637454.79247  20440512.138    20440515.2984
  20792005.058    -5397807.694 9  -4185282.64447  20792004.715    20792006.8304
 01  7 12 17 15  0.0000000  0  9 23 15 03 06 21 26 22 17 18
  20561207.100    -2616535.868 9  -1911254.45147  20561206.593    20561209.6404
  20576600.546    -3763705.817 9  -2922783.72447  20576599.866    20576603.1784
  24231999.836    -4173365.152 7  -3239352.02145  24231999.665    24232004.6044
  21402590.499     4692602.596 8   3592423.56947  21402590.235    21402593.5414
  23561127.816    -7168474.718 8  -5567852.24045  23561127.101    23561133.1114
  22086551.263    -2376471.348 8  -1843588.71646  22086551.248    22086554.9354
  22871283.842    -1040047.348 8   -737145.68946  22871283.120    22871287.4114
  20440052.265    -2111934.959 9  -1639340.06247  20440051.727    20440054.9074
  20781962.097    -5450583.761 9  -4226406.84147  20781961.767    20781963.8564
 01  7 12 17 15 30.0000000  0  9 23 15 03 06 21 26 22 17 18
  20559846.472    -2623686.084 9  -1916826.04547  20559845.935    20559848.9624
  20570738.861    -3794509.656 9  -2946786.70647  20570738.125    20570741.3514
  24212730.554    -4274626.401 7  -3318256.82745  24212730.395    24212735.6464
  21416141.251     4763812.345 8   3647911.62747  21416141.004    21416144.4094
  23544436.056    -7256190.566 8  -5636202.19745  23544435.327    23544441.3034
  22086287.724    -2377856.517 8  -1844668.09146  22086287.741    22086291.3654
  22875023.373    -1020398.132 8   -721834.64846  22875022.531    22875026.7114
  20439640.144    -2114100.183 9  -1641027.27047  20439639.632    20439642.9244
  20772007.165    -5502897.975 9  -4267171.14047  20772006.719    20772008.8014
 01  7 12 17 16  0.0000000  0  9 23 15 03 06 21 26 22 17 18
  20558574.234    -2630372.004 9  -1922035.85647  20558573.656    20558576.6744
  20564928.361    -3825043.645 9  -2970579.42547  20564927.697    20564930.9684
  24193482.859    -4375774.969 7  -3397073.83945  24193482.391    24193487.7794
  21429767.612     4835419.418 8   3703709.28847  21429767.411    21429770.8834
  23527783.773    -7343698.224 8  -5704389.90546  23527783.145    23527789.0214
  22086145.296    -2378604.972 8  -1845251.30246  22086145.270    22086148.9084
  22878862.934    -1000219.884 8   -706111.37846  22878862.074    22878866.4194
  20439276.520    -2116010.975 9  -1642516.21947  20439276.044    20439279.3524
  20762140.229    -5554749.226 9  -4307574.69747  20762139.750    20762141.8094
 01  7 12 17 16 30.0000000  0  9 23 15 03 06 21 26 22 17 18
  20557390.308    -2636593.413 9  -1926883.69847  20557389.775    20557392.7904
  20559169.442    -3855306.704 9  -2994161.02947  20559168.754    20559172.0464
  24174257.034    -4476807.836 7  -3475800.69745  24174256.391    24174261.8144
  21443469.565     4907423.512 8   3759816.32247  21443469.355    21443472.8684
  23511171.390    -7430995.690 8  -5772413.82346  23511170.965    23511176.7144
  22086124.139    -2378715.430 8  -1845337.34346  22086124.185    22086127.7954
  22882803.004     -979513.655 8   -689976.69346  22882802.435    22882806.7754
  20438961.595    -2117666.397 9  -1643806.17747  20438961.081    20438964.4234
  20752361.572    -5606136.075 9  -4347616.39747  20752361.129    20752363.1824
 01  7 12 17 17  0.0000000  0  9 23 15 03 06 21 26 22 17 18
  20556294.518    -2642352.013 9  -1931370.93047  20556293.974    20556296.9614
  20553462.011    -3885299.602 9  -3017532.11347  20553461.335    20553464.6174
  24155053.364    -4577723.759 7  -3554436.41845  24155052.676    24155058.1384
  21457246.621     4979822.306 9   3816230.92147  21457246.457    21457249.9874
  23494599.209    -7518082.844 8  -5840273.88446  23494598.868    23494604.4314
  22086224.493    -2378188.491 8  -1844926.74646  22086224.545    22086228.2654
  22886843.769     -958282.149 8   -673432.70446  22886842.858    22886847.2814
  20438695.232    -2119067.268 9  -1644897.78447  20438694.676    20438697.9054
  20742671.159    -5657058.866 9  -4387296.47647  20742670.828    20742672.9014
 01  7 12 17 17 30.0000000  0  9 23 15 03 06 21 26 22 17 18
  20555286.644    -2647648.249 9  -1935497.86647  20555286.132    20555289.1064
  20547806.043    -3915021.724 9  -3040692.21047  20547805.380    20547808.6614
  24135872.249    -4678520.406 7  -3632979.21745  24135871.524    24135876.8964
  21471098.743     5052614.828 9   3872952.32547  21471098.537    21471101.8834
  23478067.496    -7604958.145 8  -5907968.86546  23478067.063    23478072.4874
  22086446.105    -2377023.508 8  -1844018.99546  22086446.172    22086449.8754
  22890983.741     -936525.807 8   -656479.77546  22890982.862    22890987.3754
  20438477.316    -2120213.206 9  -1645790.74447  20438476.737    20438479.9094
  20733069.516    -5707516.496 9  -4426614.10447  20733069.175    20733071.1594
 01  7 12 17 18  0.0000000  0  9 23 15 03 06 21 26 22 17 18
  20554366.631    -2652483.144 9  -1939265.32547  20554366.108    20554369.0524
  20542201.683    -3944473.047 9  -3063641.29547  20542200.990    20542204.3404
  24116714.457    -4779195.769 7  -3711427.51245  24116713.986    24116718.9594
  21485025.502     5125799.531 8   3929979.31147  21485025.236    21485028.5284
  23461576.212    -7691620.737 8  -5975498.09346  23461575.690    23461581.0244
  22086789.151    -2375220.393 8  -1842613.99146  22086789.264    22086793.0474
  22895223.539     -914246.054 8   -639118.94446  22895222.697    22895226.9324
  20438307.742    -2121104.592 9  -1646485.35047  20438307.164    20438310.2834
  20723556.411    -5757508.504 9  -4465568.91147  20723555.951    20723557.9924
 01  7 12 17 18 30.0000000  0  9 23 15 03 06 21 26 22 17 18
  20553534.393    -2656857.066 9  -1942673.57347  20553533.815    20553536.7034
  20536648.955    -3973652.939 9  -3086378.86847  20536648.314    20536651.6074
  24097580.291    -4879747.325 7  -3789779.31545  24097579.583    24097584.7934
  21499026.528     5199375.610 8   3987311.27347  21499026.284    21499029.8014
  23445125.367    -7778069.221 8  -6042860.49146  23445125.018    23445130.2684
  22087253.798    -2372778.292 8  -1840711.06946  22087253.982    22087258.0104
  22899562.462     -891444.279 8   -621351.40046  22899561.554    22899566.1094
  20438186.651    -2121740.879 9  -1646981.17547  20438186.048    20438189.1934
  20714132.053    -5807034.087 9  -4504160.25747  20714131.555    20714133.5464
 01  7 12 17 19  0.0000000  0  9 23 15 03 06 21 26 22 17 18
  20552789.748    -2660770.123 9  -1945722.71247  20552789.180    20552792.0754
  20531148.074    -4002560.558 9  -3108904.29247  20531147.382    20531150.7154
  24078469.373    -4980172.279 7  -3868032.52345  24078469.193    24078474.6834
  21513101.987     5273342.425 8   4044947.69047  21513101.750    21513105.3134
  23428715.687    -7864301.781 8  -6110054.62946  23428715.408    23428720.7944
  22087840.380    -2369696.213 8  -1838309.48446  22087840.477    22087844.4334
  22904000.727     -868121.650 8   -603177.97446  22903999.921    22904004.3054
  20438114.206    -2122121.180 9  -1647277.52647  20438113.628    20438116.7814
  20704796.657    -5856091.621 9  -4542386.91147  20704796.238    20704798.1744
 01  7 12 17 19 30.0000000  0  9 23 15 03 06 21 26 22 17 18
  20552132.475    -2664224.087 9  -1948414.12047  20552131.915    20552134.8114
  20525698.915    -4031196.360 9  -3131217.90647  20525698.195    20525701.4404
  24059383.874    -5080469.303 7  -3946186.00545  24059383.375    24059388.6684
  21527251.324     5347698.009 8   4102887.06447  21527251.144    21527254.7794
  23412347.313    -7950318.054 8  -6177080.24046  23412346.960    23412352.4234
  22088548.466    -2365974.828 8  -1835409.69846  22088548.616    22088552.7364
  22908537.730     -844280.243 8   -584600.29646  22908536.761    22908540.9704
  20438090.384    -2122246.216 9  -1647374.97347  20438089.805    20438092.9334
  20695550.373    -5904681.329 9  -4580249.01047  20695549.909    20695551.8654
 01  7 12 17 20  0.0000000  0  9 23 15 03 06 21 26 22 17 18
  20551562.291    -2667220.501 9  -1950748.99647  20551561.760    20551564.6034
  20520301.306    -4059560.911 9  -3153320.15747  20520300.572    20520303.8734
  24040322.952    -5180636.866 7  -4024238.59045  24040321.952    24040327.2934
  21541474.458     5422440.325 8   4161127.77247  21541474.288    21541477.8804
  23396020.297    -8036117.732 8  -6243937.07746  23396019.803    23396025.2764
  22089378.432    -2361614.575 8  -1832012.11946  22089378.491    22089382.4324
  22913172.769     -819921.777 8   -565619.73546  22913172.110    22913176.4354
  20438114.969    -2122116.808 9  -1647274.14947  20438114.408    20438117.5244
  20686393.053    -5952803.095 9  -4617746.46947  20686392.628    20686394.6354
 01  7 12 17 20 30.0000000  0  9 23 15 03 06 21 26 22 17 18
  20551079.166    -2669759.391 9  -1952727.35647  20551078.614    20551081.5104
  20514955.473    -4087653.117 9  -3175210.18847  20514954.763    20514958.0354
  24021286.122    -5280672.003 7  -4102188.03245  24021285.681    24021291.1764
  21555770.872     5497568.651 8   4219669.26347  21555770.681    21555774.3764
  23379734.878    -8121698.781 8  -6310623.56746  23379734.356    23379739.6534
  22090329.817    -2356614.441 8  -1828115.89846  22090329.903    22090333.7674
  22917906.468     -795047.030 8   -546236.85846  22917905.754    22917910.0244
  20438188.221    -2121731.850 9  -1646974.19947  20438187.657    20438190.7574
  20677325.139    -6000455.690 9  -4654878.35247  20677324.666    20677326.5824
 01  7 12 17 21  0.0000000  0  9 23 15 03 06 21 26 22 17 18
  20550683.052    -2671840.928 9  -1954349.33747  20550682.519    20550685.4124
  20509661.604    -4115471.938 9  -3196887.18947  20509660.927    20509664.2824
  24002275.533    -5380571.865 7  -4180032.05045  24002275.290    24002280.8344
  21570140.602     5573082.589 8   4278511.24447  21570140.472    21570144.3364
  23363491.339    -8207059.182 8  -6377138.09846  23363490.831    23363496.0354
  22091403.308    -2350973.627 8  -1823720.44646  22091403.350    22091407.1594
  22922737.626     -769657.279 8   -526452.69146  22922737.119    22922741.2854
  20438310.239    -2121090.622 9  -1646474.55547  20438309.703    20438312.8014
  20668346.603    -6047637.954 9  -4691643.72947  20668346.142    20668348.1234
 01  7 12 17 21 30.0000000  0  9 23 15 03 06 21 26 22 17 18
  20550373.674    -2673466.697 9  -1955616.18147  20550373.143    20550376.0534
  20504419.740    -4143018.087 9  -3218351.72647  20504419.056    20504422.4364
  23983291.676    -5480334.636 8  -4257769.26545  23983291.472    23983296.5044
  21584583.566     5648980.144 8   4337652.13447  21584583.364    21584587.2614
  23347289.699    -8292199.112 8  -6443480.84846  23347289.198    23347294.3254
  22092598.564    -2344692.544 8  -1818826.09646  22092598.692    22092602.3224
  22927666.629     -743755.083 8   -506269.21046  22927666.197    22927670.5644
  20438480.896    -2120193.779 9  -1645775.72747  20438480.365    20438483.5254
  20659457.645    -6094350.019 9  -4728042.72947  20659457.125    20659459.1094
 01  7 12 17 22  0.0000000  0  9 23 15 03 06 21 26 22 17 18
  20550150.621    -2674638.834 9  -1956529.54347  20550150.087    20550153.0114
  20499229.609    -4170292.263 9  -3239604.33547  20499228.949    20499232.3804
  23964334.707    -5579959.485 8  -4335398.95645  23964333.827    23964338.3384
  21599098.968     5725258.717 8   4397089.93247  21599098.705    21599102.4594
  23331129.804    -8377118.315 8  -6509651.60546  23331129.505    23331134.6594
  22093915.788    -2337772.191 8  -1813433.61746  22093915.760    22093919.2444
  22932693.131     -717342.426 8   -485688.00246  22932692.447    22932696.8614
  20438700.057    -2119042.209 9  -1644878.41347  20438699.503    20438702.6584
  20650658.022    -6140592.451 9  -4764075.78447  20650657.477    20650659.4504
 01  7 12 17 22 30.0000000  0  9 23 15 03 06 21 26 22 17 18
  20550013.909    -2675357.165 9  -1957089.29347  20550013.382    20550016.3104
  20494091.609    -4197293.108 9  -3260643.96247  20494090.906    20494094.3774
  23945403.323    -5679443.311 7  -4412918.79745  23945402.533    23945407.1744
  21613686.758     5801918.130 8   4456824.49747  21613686.496    21613690.2824
  23315012.722    -8461814.885 8  -6575648.86946  23315012.233    23315017.3604
  22095354.142    -2330211.610 8  -1807542.24446  22095354.314    22095358.0104
  22937816.452     -690419.769 8   -464709.35546  22937815.701    22937819.8374
  20438967.843    -2117634.782 9  -1643781.73547  20438967.317    20438970.5604
  20641948.107    -6186363.407 9  -4799741.45447  20641947.547    20641949.5414
 01  7 12 17 23  0.0000000  0  9 23 15 03 06 21 26 22 17 18
  20549963.583    -2675621.854 9  -1957295.55047  20549963.057    20549966.0344
  20489005.783    -4224019.575 9  -3281469.78247  20489005.087    20489008.5174
  23926499.133    -5778782.855 7  -4490326.18545  23926498.660    23926503.6314
  21628346.940     5878957.736 8   4516855.30147  21628346.757    21628350.4924
  23298938.498    -8546286.741 8  -6641471.01046  23298937.651    23298942.8924
  22096915.283    -2322009.732 8  -1801151.21246  22096915.293    22096918.7314
  22943036.567     -662988.043 8   -443334.05046  22943035.737    22943040.1854
  20439284.566    -2115970.669 9  -1642485.03347  20439284.028    20439287.2984
  20633328.074    -6231661.725 9  -4835038.84147  20633327.565    20633329.5454
 01  7 12 17 23 30.0000000  0  9 23 15 03 06 21 26 22 17 18
  20549999.200    -2675434.620 9  -1957149.66447  20549998.692    20550001.6664
  20483972.101    -4250472.203 9  -3302082.23247  20483971.382    20483974.8024
  23907622.855    -5877976.658 7  -4567620.01945  23907622.608    23907627.8514
  21643079.196     5956375.319 8   4577180.63047  21643078.898    21643082.6594
  23282906.694    -8630533.204 8  -6707117.54346  23282906.020    23282911.2124
  22098597.757    -2313167.513 8  -1794261.16846  22098597.740    22098601.4714
  22948353.201     -635050.174 8   -421564.38346  22948352.126    22948356.8124
  20439649.930    -2114050.658 9  -1640988.93847  20439649.395    20439652.6434
  20624798.028    -6276487.560 9  -4869968.05647  20624797.480    20624799.4354
 01  7 12 17 24  0.0000000  0  9 23 15 03 06 21 26 22 17 18
  20550120.945    -2674795.166 9  -1956651.39747  20550120.438    20550123.3544
  20478990.737    -4276649.654 9  -3322480.25047  20478990.050    20478993.4324
  23888775.254    -5977021.443 7  -4644797.75245  23888775.015    23888780.0784
  21657883.104     6034170.570 8   4637800.25647  21657882.849    21657886.7514
  23266918.219    -8714552.938 8  -6772587.42446  23266917.658    23266922.6784
  22100402.343    -2303683.712 8  -1786871.23446  22100402.389    22100406.1614
  22953765.826     -606606.825 8   -399400.79946  22953764.859    22953769.1134
  20440064.278    -2111873.394 9  -1639292.38347  20440063.758    20440066.9984
  20616358.122    -6320839.592 9  -4904528.07747  20616357.563    20616359.5054
 01  7 12 17 24 30.0000000  0  9 23 15 03 06 21 26 22 17 18
  20550328.128    -2673706.294 9  -1955802.93947  20550327.614    20550330.5634
  20474061.406    -4302553.462 9  -3342665.04547  20474060.673    20474064.0944
  23869955.913    -6075916.827 7  -4721859.04845  23869955.854    23869960.5124
  21672758.399     6112340.410 8   4698711.75047  21672758.171    21672762.0094
  23250973.089    -8798346.140 8  -6837880.78546  23250972.397    23250977.2194
  22102329.056    -2293560.211 8  -1778982.84246  22102329.016    22102332.4924
  22959274.263     -577660.802 8   -376845.53646  22959273.106    22959277.2884
  20440527.272    -2109440.460 9  -1637396.60347  20440526.738    20440529.9764
  20608008.113    -6364718.922 9  -4938719.74847  20608007.603    20608009.5884
 01  7 12 17 25  0.0000000  0  9 23 15 03 06 21 26 22 17 18
  20550620.911    -2672168.100 9  -1954604.36247  20550620.381    20550623.2794
  20469184.323    -4328182.441 9  -3362635.67847  20469183.629    20469186.9944
  23851166.168    -6174659.587 7  -4798801.40245  23851165.791    23851170.3074
  21687704.804     6190884.260 8   4759914.69847  21687704.585    21687708.4954
  23235071.215    -8881910.797 8  -6902996.05446  23235070.516    23235075.3874
  22104377.057    -2282796.108 8  -1770595.23446  22104377.198    22104381.0194
  22964877.991     -548212.681 8   -353899.02946  22964876.996    22964881.4894
  20441039.110    -2106750.993 9  -1635300.92847  20441038.593    20441041.7794
  20599748.465    -6408124.152 9  -4972541.99547  20599747.881    20599749.8194
 01  7 12 17 25 30.0000000  0  9 23 15 03 06 21 26 22 17 18
  20550999.004    -2670181.570 9  -1953056.42347  20550998.430    20551001.2924
  20464359.569    -4353536.305 9  -3382391.94647  20464358.909    20464362.3564
  23832405.641    -6273247.411 8  -4875623.06245  23832405.209    23832409.7334
  21702722.029     6269800.703 8   4821407.95747  21702721.868    21702725.8164
  23219212.937    -8965245.938 8  -6967932.48046  23219212.274    23219217.2974
  22106547.487    -2271391.472 8  -1761708.51946  22106547.545    22106551.3294
  22970576.923     -518264.601 8   -330562.91446  22970575.961    22970580.4594
  20441599.924    -2103804.720 9  -1633005.14647  20441599.355    20441602.5304
  20591579.042    -6451054.970 9  -5005994.57547  20591578.427    20591580.3064
 01  7 12 17 26  0.0000000  0  9 23 15 03 06 21 26 22 17 18
  20551462.172    -2667747.902 9  -1951160.07047  20551461.589    20551464.4384
  20459587.238    -4378614.866 9  -3401933.67847  20459586.593    20459589.9734
  23813675.225    -6371678.166 7  -4952322.29645  23813674.576    23813678.9274
  21717810.028     6349088.150 8   4883190.32047  21717809.863    21717813.7054
  23203398.463    -9048350.897 8  -7032689.53246  23203397.822    23203403.0184
  22108839.505    -2259346.731 8  -1752322.99946  22108839.579    22108843.3594
  22976370.534     -487818.881 8   -306839.02346  22976369.700    22976374.0484
  20442209.544    -2100601.665 9  -1630509.27747  20442208.963    20442212.1044
  20583499.854    -6493511.016 9  -5039077.20347  20583499.320    20583501.2224
 01  7 12 17 26 30.0000000  0  9 23 15 03 06 21 26 22 17 18
  20552010.255    -2664867.845 9  -1948915.88247  20552009.650    20552012.5074
  20454867.466    -4403417.704 9  -3421260.57247  20454866.820    20454870.1564
  23794974.674    -6469949.646 8  -5028897.42445  23794973.993    23794978.4284
  21732968.363     6428745.302 8   4945260.79047  21732968.119    21732972.0124
  23187627.804    -9131224.548 8  -7097266.34946  23187627.320    23187632.6784
  22111253.471    -2246661.729 8  -1742438.58746  22111253.547    22111257.2824
  22982258.857     -456876.790 8   -282728.33346  22982257.844    22982262.4444
  20442868.064    -2097141.708 9  -1627813.21247  20442867.457    20442870.5224
  20575511.182    -6535491.803 9  -5071789.49547  20575510.670    20575512.5634
 01  7 12 17 27  0.0000000  0  9 23 15 03 06 21 26 22 17 18
  20552643.008    -2661542.547 9  -1946324.75547  20552642.442    20552645.2814
  20450200.254    -4427944.721 9  -3440372.53847  20450199.551    20450202.7764
  23776304.891    -6568059.509 7  -5105346.63345  23776304.097    23776308.8574
  21748196.882     6508770.652 8   5007618.13747  21748196.607    21748200.4114
  23171901.551    -9213866.076 8  -7161662.29646  23171901.017    23171906.4794
  22113789.217    -2233336.900 8  -1732055.60246  22113789.242    22113792.9584
  22988241.125     -425439.662 8   -258231.95446  22988240.202    22988244.7494
  20443575.465    -2093424.733 9  -1624916.89147  20443574.788    20443577.8724
  20567613.037    -6576997.015 9  -5104131.21347  20567612.498    20567614.4024
 01  7 12 17 27 30.0000000  0  9 23 15 03 06 21 26 22 17 18
  20553360.395    -2657772.464 9  -1943387.04047  20553359.865    20553362.6944
  20445585.701    -4452194.767 9  -3459268.68147  20445585.006    20445588.1554
  23757666.307    -6666004.622 8  -5181667.45845  23757665.720    23757670.4624
  21763495.189     6589163.505 8   5070261.84947  21763494.966    21763498.6314
  23156219.737    -9296273.696 8  -7225875.99546  23156219.233    23156224.6444
  22116446.624    -2219371.436 8  -1721173.43846  22116446.792    22116450.4434
  22994317.412     -393508.695 8   -233350.63446  22994316.536    22994320.8724
  20444331.851    -2089449.898 9  -1621819.64047  20444331.184    20444334.3084
  20559805.693    -6618025.496 9  -5136101.44747  20559805.063    20559806.9214
 01  7 12 17 28  0.0000000  0  9 23 15 03 06 21 26 22 17 18
  20554162.226    -2653559.226 9  -1940104.01147  20554161.660    20554164.4994
  20441023.808    -4476168.250 9  -3477949.32847  20441023.074    20441026.0984
  23739059.386    -6763783.213 8  -5257858.54445  23739058.932    23739063.7144
  21778863.006     6669921.637 8   5133190.19847  21778862.787    21778866.3604
  23140582.654    -9378446.839 8  -7289906.98046  23140582.218    23140587.4324
  22119226.079    -2204766.490 8  -1709792.98046  22119226.069    22119229.7014
  23000487.036     -361087.237 8   -208087.30146  23000486.244    23000490.6244
  20445137.146    -2085217.809 9  -1618521.91347  20445136.497    20445139.6054
  20552088.685    -6658577.617 9  -5167700.50347  20552088.195    20552090.0994
 01  7 12 17 28 30.0000000  0  9 23 15 03 06 21 26 22 17 18
  20555048.062    -2648904.268 9  -1936476.77647  20555047.457    20555050.3044
  20436514.460    -4499865.482 9  -3496414.70347  20436513.676    20436516.6384
  23720484.746    -6861393.611 8  -5333918.56145  23720484.370    23720489.0764
  21794300.070     6751042.951 8   5196401.56047  21794299.850    21794303.2724
  23124990.287    -9460384.971 8  -7353754.81946  23124989.873    23124995.0434
  22122126.771    -2189522.622 8  -1697914.65846  22122126.810    22122130.6224
  23006750.004     -328177.057 8   -182443.03746  23006748.939    23006753.3864
  20445991.331    -2080728.630 9  -1615023.87747  20445990.715    20445993.8814
  20544462.471    -6698653.350 9  -5198928.33647  20544462.055    20544463.9954
 01  7 12 17 29  0.0000000  0  9 23 15 03 06 21 26 22 17 18
  20556017.676    -2643808.579 9  -1932506.12347  20556017.135    20556019.9824
  20432057.673    -4523286.175 9  -3514664.60147  20432056.901    20432059.8484
  23701942.631    -6958833.581 8  -5409845.78545  23701942.307    23701946.8344
  21809805.971     6832526.243 8   5259894.98047  21809805.606    21809809.0624
  23109442.945    -9542087.015 8  -7417418.68546  23109442.486    23109447.7144
  22125149.139    -2173640.067 8  -1685538.65546  22125149.178    22125152.9514
  23013105.263     -294779.621 8   -156419.07446  23013104.260    23013108.5384
  20446894.599    -2075982.135 9  -1611325.32347  20446893.940    20446897.1504
  20536927.049    -6738252.169 9  -5229784.56347  20536926.691    20536928.5594
 01  7 12 17 29 30.0000000  0  9 23 15 03 06 21 26 22 17 18
  20557071.149    -2638272.582 9  -1928192.37447  20557070.636    20557073.4914
  20427653.664    -4546429.383 9  -3532698.26947  20427652.850    20427655.8334
  23683433.358    -7056100.310 8  -5485637.99345  23683433.080    23683437.3674
  21825380.166     6914370.599 8   5323669.73246  21825379.914    21825383.6384
  23093940.613    -9623551.625 8  -7480897.55846  23093940.308    23093945.5414
  22128293.175    -2157118.529 8  -1672664.77446  22128293.241    22128296.9444
  23019553.448     -260895.921 8   -130016.22846  23019552.186    23019556.4634
  20447846.890    -2070977.612 9  -1607425.71147  20447846.261    20447849.4664
  20529482.739    -6777373.257 9  -5260268.52947  20529482.245    20529484.0514
 01  7 12 17 30  0.0000000  0  9 23 15 03 06 21 26 22 17 18
  20558208.134    -2632298.025 9  -1923536.88347  20558207.579    20558210.4224
  20423302.380    -4569295.304 9  -3550515.87847  20423301.613    20423304.6564
  23664957.597    -7153191.658 8  -5561293.54845  23664957.231    23664961.5254
  21841023.019     6996573.912 8   5387724.16446  21841022.784    21841026.4674
  23078483.646    -9704778.387 8  -7544191.08646  23078483.429    23078488.6934
  22131558.542    -2139959.068 8  -1659293.78046  22131558.541    22131562.2164
  23026093.544     -226529.060 8   -103236.94246  23026092.128    23026096.4174
  20448848.209    -2065715.521 9  -1603325.39447  20448847.607    20448850.8194
  20522128.993    -6816017.081 9  -5290380.60147  20522128.546    20522130.4224
 01  7 12 17 30 30.0000000  0  9 23 15 03 06 21 26 22 17 18
  20559428.478    -2625885.104 9  -1918539.82147  20559427.944    20559430.7414
  20419004.047    -4591882.945 9  -3568116.63947  20419003.278    20419006.3394
  23646515.698    -7250104.651 7  -5636810.14145  23646515.258    23646519.5574
  21856734.129     7079135.407 8   5452057.73546  21856733.768    21856737.4504
  23063072.584    -9785765.481 8  -7607297.84946  23063072.088    23063077.4074
  22134945.056    -2122161.106 8  -1645425.24446  22134945.296    22134949.0314
  23032724.912     -191680.342 8    -76082.15946  23032723.656    23032727.8214
  20449898.796    -2060194.980 9  -1599023.69447  20449898.190    20449901.4154
  20514866.517    -6854182.473 9  -5320119.87248  20514865.984    20514867.7524
 01  7 12 17 31  0.0000000  0  9 23 15 03 06 21 26 22 17 18
  20560731.963    -2619035.345 9  -1913202.36048  20560731.402    20560734.2444
  20414758.713    -4614192.071 9  -3585500.38047  20414757.977    20414761.1124
  23628107.724    -7346837.263 8  -5712186.14445  23628107.542    23628111.8264
  21872512.835     7162053.245 8   5516669.00246  21872512.564    21872516.1304
  23047706.899    -9866512.061 8  -7670217.21546  23047706.385    23047711.7594
  22138453.581    -2103725.366 8  -1631059.75246  22138453.558    22138457.4064
  23039447.701     -156351.448 8    -48553.19745  23039446.513    23039450.7074
  20450998.557    -2054415.877 9  -1594520.52247  20450997.919    20451001.1584
  20507694.900    -6891869.264 9  -5349486.20347  20507694.389    20507696.2284
 01  7 12 17 31 30.0000000  0  9 23 15 03 06 21 26 22 17 18
  20562118.147    -2611750.713 9  -1907526.03647  20562117.632    20562120.4654
  20410566.184    -4636223.103 9  -3602667.41647  20410565.490    20410568.7464
  23609735.163    -7443387.812 8  -5787420.26245  23609734.780    23609739.0574
  21888358.980     7245325.188 8   5581556.15946  21888358.725    21888362.3464
  23032386.750    -9947018.113 8  -7732949.14046  23032386.431    23032391.9854
  22142082.776    -2084653.039 8  -1616198.20546  22142082.845    22142086.7554
  23046261.724     -120544.892 8    -20652.05146  23046260.545    23046264.6134
  20452147.405    -2048378.938 9  -1589816.42147  20452146.754    20452149.9924
  20500614.277    -6929078.077 9  -5378480.08247  20500613.761    20500615.6214
 01  7 12 17 32  0.0000000  0  9 23 15 03 06 21 26 22 17 18
  20563587.150    -2604031.192 9  -1901510.84347  20563586.645    20563589.4544
  20406426.894    -4657974.978 9  -3619616.93347  20406426.245    20406429.5944
  23591397.765    -7539752.889 8  -5862509.87245  23591397.225    23591401.6654
  21904272.271     7328950.565 8   5646718.70846  21904272.088    21904275.8804
  23017112.900   -10027281.883 8  -7795492.27346  23017112.415    23017118.2544
  22145833.478    -2064943.525 8  -1600840.12046  22145833.519    22145837.4794
  23053166.138      -84261.562 8      7620.63146  23053164.977    23053169.3044
  20453345.528    -2042082.985 9  -1584910.50247  20453344.874    20453348.1124
  20493624.803    -6965807.666 9  -5407100.55547  20493624.349    20493626.1674
 01  7 12 17 32 30.0000000  0  9 23 15 03 06 21 26 22 17 18
  20565138.669    -2595877.913 9  -1895157.64948  20565138.161    20565141.0314
  20402340.825    -4679447.293 9  -3636348.61647  20402340.194    20402343.5624
  23573095.745    -7635930.447 8  -5937453.38345  23573095.216    23573099.7224
  21920252.768     7412927.805 8   5712155.43546  21920252.574    21920256.2224
  23001885.604   -10107302.178 8  -7857845.68446  23001884.977    23001890.9114
  22149705.062    -2044597.370 8  -1584985.97746  22149705.178    22149709.3434
  23060160.387      -47503.863 8     36262.91246  23060159.573    23060163.9674
  20454592.942    -2035527.779 9  -1579802.57347  20454592.320    20454595.6184
  20486726.686    -7002057.702 9  -5435347.32848  20486726.225    20486728.0484
 01  7 12 17 33  0.0000000  0  9 23 15 03 06 21 26 22 17 18
  20566772.260    -2587293.325 9  -1888468.37547  20566771.770    20566774.6454
  20398307.932    -4700640.942 9  -3652863.14647  20398307.236    20398310.6154
  23554829.280    -7731919.027 8  -6012249.62845  23554828.922    23554833.6234
  21936299.748     7497254.112 8   5777864.16847  21936299.486    21936303.1024
  22986704.679   -10187079.121 8  -7920009.49846  22986703.996    22986709.6104
  22153697.960    -2023616.167 8  -1568637.00846  22153697.974    22153701.5894
  23067245.405      -10275.257 8     65272.17346  23067244.309    23067248.1694
  20455889.506    -2028714.377 9  -1574493.43447  20455888.893    20455892.1254
  20479919.482    -7037829.277 9  -5463221.28448  20479919.087    20479920.9554
 01  7 12 17 33 30.0000000  0  9 23 15 03 06 21 26 22 17 18
  20568487.936    -2578277.637 9  -1881443.18847  20568487.412    20568490.2894
  20394328.224    -4721554.592 9  -3669159.50247  20394327.531    20394330.9224
  23536599.503    -7827715.397 8  -6086896.11645  23536599.321    23536603.9904
  21952412.918     7581928.882 8   5843844.44247  21952412.641    21952416.3454
  22971570.126   -10266611.247 8  -7981982.57346  22971569.634    22971574.9324
  22157811.153    -2001999.540 8  -1551792.86046  22157811.277    22157815.2954
  23074419.108       27423.868 8     94648.04346  23074418.133    23074422.3774
  20457235.391    -2021641.661 9  -1568982.24547  20457234.761    20457238.0614
  20473203.710    -7073121.219 9  -5490721.49748  20473203.306    20473205.1124
 01  7 12 17 34  0.0000000  0  9 23 15 03 06 21 26 22 17 18
  20570285.445    -2568831.850 9  -1874082.84348  20570284.888    20570287.8204
  20390401.995    -4742187.644 9  -3685237.21247  20390401.259    20390404.5844
  23518407.369    -7923317.112 8  -6161390.90445  23518406.986    23518411.4844
  21968592.113     7666950.623 8   5910095.07146  21968591.791    21968595.6294
  22956482.705   -10345897.330 8  -8043763.89346  22956482.078    22956487.1214
  22162045.710    -1979748.067 8  -1534454.11146  22162045.745    22162049.6484
  23081682.401       65591.793 8    124389.23045  23081681.354    23081685.4694
  20458630.675    -2014309.364 9  -1563268.78447  20458630.115    20458633.3654
  20466579.194    -7107933.100 9  -5517847.64947  20466578.812    20466580.5994
 01  7 12 17 34 30.0000000  0  9 23 15 03 06 21 26 22 17 18
  20572164.341    -2558958.450 9  -1866389.30947  20572163.767    20572166.6944
  20386528.763    -4762541.385 9  -3701097.27747  20386528.100    20386531.4494
  23500252.170    -8018723.111 8  -6235733.19045  23500251.555    23500256.2504
  21984836.553     7752316.359 8   5976613.75546  21984836.294    21984840.3584
  22941442.003   -10424937.701 8  -8105353.73346  22941441.171    22941446.2464
  22166400.308    -1956863.607 8  -1516622.08746  22166400.390    22166404.1754
  23089034.356      104224.982 8    154492.98745  23089032.966    23089037.0204
  20460075.150    -2006718.565 9  -1557353.88347  20460074.585    20460077.8534
  20460045.897    -7142266.219 9  -5544600.71548  20460045.445    20460047.2854
 01  7 12 17 35  0.0000000  0  9 23 15 03 06 21 26 22 17 18
  20574124.584    -2548656.610 9  -1858361.91747  20574124.080    20574127.0764
  20382709.259    -4782613.463 9  -3716737.85947  20382708.545    20382711.8494
  23482134.785    -8113929.155 8  -6309919.68445  23482134.396    23482138.9964
  22001146.885     7838026.611 8   6043400.87346  22001146.573    22001150.5454
  22926448.048   -10503729.648 8  -8166750.01546  22926447.580    22926452.6724
  22170876.017    -1933344.552 8  -1498295.58346  22170876.082    22170879.9354
  23096473.871      143322.863 8    184958.81646  23096472.915    23096477.6204
  20461569.257    -1998867.052 9  -1551235.84347  20461568.691    20461571.9844
  20453604.067    -7176118.275 9  -5570978.95148  20453603.625    20453605.5014
 01  7 12 17 35 30.0000000  0  9 23 15 03 06 21 26 22 17 18
  20576166.158    -2537928.553 9  -1850002.40748  20576165.657    20576168.5944
  20378943.119    -4802404.808 9  -3732159.68847  20378942.412    20378945.6704
  23464056.181    -8208933.726 8  -6383949.16645  23464055.672    23464060.2164
  22017521.945     7924078.660 8   6110454.33846  22017521.667    22017525.7214
  22911501.584   -10582273.401 8  -8227952.87446  22911501.178    22911506.4334
  22175471.704    -1909192.951 8  -1479476.16446  22175471.840    22175475.7714
  23104002.217      182882.709 8    215784.60646  23104000.993    23104005.5524
  20463112.755    -1990755.718 9  -1544915.33347  20463112.182    20463115.4644
  20447253.558    -7209490.277 9  -5596983.10847  20447253.112    20447255.0274
 01  7 12 17 36  0.0000000  0  9 23 15 03 06 21 26 22 17 18
  20578288.548    -2526775.225 9  -1841311.52347  20578288.028    20578291.0094
  20375230.632    -4821914.400 9  -3747361.97847  20375229.882    20375233.0404
  23446016.084    -8303734.040 8  -6457819.49745  23446015.651    23446020.4944
  22033961.872     8010471.235 8   6177773.14046  22033961.665    22033965.8744
  22896602.597   -10660567.367 8  -8288961.11546  22896602.073    22896607.6094
  22180188.232    -1884408.829 8  -1460163.91446  22180188.265    22180191.9634
  23111617.451      222903.025 8    246969.23346  23111616.561    23111620.9734
  20464705.889    -1982384.060 9  -1538391.98147  20464705.309    20464708.5644
  20440994.476    -7242381.768 9  -5622612.84748  20440994.064    20440995.9484
 01  7 12 17 36 30.0000000  0  9 23 15 03 06 21 26 22 17 18
  20580491.674    -2515198.278 9  -1832290.54048  20580491.103    20580494.0524
  20371571.798    -4841142.128 9  -3762344.63047  20371571.045    20371574.1054
  23428015.238    -8398328.151 8  -6531529.16645  23428015.202    23428020.0974
  22050466.401     8097202.166 8   6245355.61246  22050466.170    22050470.1214
  22881751.082   -10738611.118 8  -8349774.36346  22881750.644    22881756.3074
  22185024.503    -1858993.558 8  -1440359.78946  22185024.547    22185028.4484
  23119320.017      263381.530 8    278510.86546  23119319.158    23119324.1954
  20466348.491    -1973752.187 9  -1531665.86347  20466347.882    20466351.1604
  20434826.912    -7274792.769 9  -5647868.17948  20434826.464    20434828.3844
 01  7 12 17 37  0.0000000  0  9 23 15 03 06 21 26 22 17 18
  20582774.867    -2503199.660 9  -1822940.97547  20582774.332    20582777.3104
  20367966.489    -4860088.538 9  -3777108.07347  20367965.711    20367968.7094
  23410054.734    -8492714.436 8  -6605076.85145  23410054.127    23410059.0474
  22067034.673     8184269.352 8   6313200.09946  22067034.510    22067038.3944
  22866947.588   -10816404.552 8  -8410392.56946  22866947.111    22866952.7134
  22189980.938    -1832948.196 8  -1420064.75246  22189980.975    22189984.5804
  23127109.635      304314.890 8    310406.89646  23127108.705    23127113.6654
  20468040.432    -1964860.581 9  -1524737.35747  20468039.891    20468043.1704
  20428750.562    -7306724.212 9  -5672749.82548  20428750.140    20428752.0534
 01  7 12 17 37 30.0000000  0  9 23 15 03 06 21 26 22 17 18
  20585138.235    -2490780.586 9  -1813263.80548  20585137.676    20585140.6094
  20364414.749    -4878753.288 9  -3791652.03947  20364413.969    20364416.9504
  23392133.519    -8586890.484 8  -6678460.75745  23392132.943    23392137.8184
  22083666.872     8271670.991 8   6381305.18146  22083666.616    22083670.6354
  22852192.058   -10893947.156 8  -8470815.34346  22852191.406    22852196.7704
  22195056.925    -1806273.783 8  -1399279.49646  22195056.882    22195060.5444
  23134985.144      345700.781 8    342655.61146  23134984.204    23134989.0134
  20469781.908    -1955709.143 9  -1517606.37247  20469781.375    20469784.6024
  20422765.520    -7338176.056 9  -5697257.74748  20422765.004    20422766.9414
 01  7 12 17 38  0.0000000  0  9 23 15 03 06 21 26 22 17 18
  20587581.485    -2477940.682 9  -1803258.69047  20587580.994    20587583.9984
  20360916.905    -4897134.514 9  -3805975.08147  20360916.091    20360919.1154
  23374253.230    -8680852.202 8  -6751677.62045  23374252.622    23374257.3364
  22100362.335     8359406.680 8   6449670.57446  22100362.108    22100366.2004
  22837484.584   -10971236.462 8  -8531040.75646  22837484.018    22837489.0884
  22200252.646    -1778969.484 8  -1378003.42446  22200252.675    22200256.5064
  23142946.380      387539.082 8    375256.81146  23142945.632    23142950.8264
  20471573.258    -1946296.058 9  -1510271.52047  20471572.665    20471575.8754
  20416871.957    -7369146.514 9  -5721390.57748  20416871.574    20416873.4704
 01  7 12 17 38 30.0000000  0  9 23 15 03 06 21 26 22 17 18
  20590104.424    -2464682.888 9  -1792927.96547  20590103.938    20590106.8504
  20357472.708    -4915233.494 9  -3820078.18647  20357471.945    20357475.0174
  23356413.656    -8774598.945 8  -6824726.97945  23356413.013    23356417.7504
  22117120.927     8447473.248 8   6518293.79146  22117120.715    22117124.6874
  22822825.198   -11048272.801 8  -8591069.03546  22822824.638    22822829.4504
  22205567.917    -1751037.765 8  -1356238.46846  22205567.886    22205571.5444
  23150993.943      429826.310 8    408207.82646  23150992.890    23150997.9044
  20473414.051    -1936622.737 9  -1502733.88647  20473413.471    20473416.6244
  20411069.890    -7399637.138 9  -5745149.50048  20411069.391    20411071.2894
 01  7 12 17 39  0.0000000  0  9 23 15 03 06 21 26 22 17 18
  20592706.880    -2451006.999 9  -1782271.43548  20592706.346    20592709.3054
  20354082.667    -4933048.361 9  -3833959.91347  20354081.893    20354085.0044
  23338615.687    -8868126.397 8  -6897605.49545  23338615.223    23338619.9284
  22133942.630     8535870.712 8   6587174.86546  22133942.310    22133946.4814
  22808213.885   -11125053.814 8  -8650898.34146  22808213.483    22808218.3284
  22211002.704    -1722477.737 8  -1333983.90146  22211002.703    22211006.4474
  23159125.780      472561.721 8    441508.10146  23159125.082    23159130.0364
  20475304.801    -1926687.293 9  -1494991.99147  20475304.182    20475307.2544
  20405359.367    -7429646.160 9  -5768533.16248  20405358.934    20405360.7244
 01  7 12 17 39 30.0000000  0  9 23 15 03 06 21 26 22 17 18
  20595388.549    -2436915.061 9  -1771290.72548  20595388.019    20595390.9264
  20350746.542    -4950579.708 9  -3847620.70947  20350745.782    20350748.9124
  23320859.847    -8961433.261 8  -6970312.10145  23320859.495    23320863.9864
  22150826.694     8624596.408 8   6656311.68146  22150826.442    22150830.5084
  22793651.341   -11201579.634 8  -8710528.79546  22793650.884    22793655.7814
  22216556.799    -1693291.268 8  -1311241.20746  22216556.798    22216560.3824
  23167342.290      515741.785 8    475154.84846  23167341.932    23167346.9984
  20477245.209    -1916490.573 9  -1487046.51847  20477244.598    20477247.6714
  20399740.325    -7459174.611 9  -5791542.34447  20399739.824    20399741.6384
 01  7 12 17 40  0.0000000  0  9 23 15 03 06 21 26 22 17 18
  20598149.063    -2422408.539 9  -1759986.95147  20598148.509    20598151.4444
  20347464.382    -4967827.369 9  -3861060.45447  20347463.614    20347466.8444
  23303146.605    -9054517.323 8  -7042845.08145  23303146.237    23303150.5884
  22167772.747     8713648.475 8   6725702.81846  22167772.451    22167776.6254
  22779137.744   -11277849.617 8  -8769959.90546  22779137.152    22779142.0214
  22222229.883    -1663479.434 8  -1288011.20845  22222229.821    22222233.2924
  23175643.765      559364.211 8    509146.30246  23175643.206    23175648.2934
  20479235.399    -1906032.350 9  -1478897.27247  20479234.781    20479237.8334
  20394212.616    -7488222.839 9  -5814177.32548  20394212.161    20394214.0154
 01  7 12 17 40 30.0000000  0  9 23 15 03 06 21 26 22 17 18
  20600988.292    -2407488.726 9  -1748361.14148  20600987.723    20600990.6584
  20344236.372    -4984790.868 9  -3874278.77747  20344235.619    20344238.8064
  23285476.134    -9147376.099 8  -7115202.53745  23285475.781    23285480.1414
  22184780.521     8803025.146 8   6795346.87446  22184780.246    22184784.6724
  22764672.887   -11353863.164 8  -8829191.19246  22764672.305    22764677.2354
  22228021.792    -1633043.173 8  -1264294.65745  22228021.682    22228025.3804
  23184028.707      603427.284 8    543481.09146  23184028.151    23184033.3054
  20481275.368    -1895312.506 9  -1470544.16347  20481274.709    20481277.7504
  20388776.376    -7516790.928 9  -5836438.17348  20388775.834    20388777.6374
 01  7 12 17 41  0.0000000  0  9 23 15 03 06 21 26 22 17 18
  20603905.741    -2392157.365 9  -1736414.64048  20603905.143    20603908.1004
  20341062.430    -5001470.145 9  -3887275.62947  20341061.636    20341064.8494
  23267848.968    -9240007.538 8  -7187382.84645  23267848.653    23267852.9664
  22201849.989     8892724.356 8   6865242.27646  22201849.559    22201853.8524
  22750256.945   -11429619.532 8  -8888222.06146  22750256.395    22750261.4344
  22233932.124    -1601983.664 8  -1240092.46445  22233932.050    22233935.6544
  23192497.063      647928.534 8    578157.34346  23192496.598    23192501.5944
  20483365.051    -1884331.227 9  -1461987.33547  20483364.392    20483367.4464
  20383431.316    -7544878.757 9  -5858324.79248  20383430.874    20383432.6924
 01  7 12 17 41 30.0000000  0  9 23 15 03 06 21 26 22 17 18
  20606901.267    -2376415.650 9  -1724148.38348  20606900.719    20606903.6834
  20337942.603    -5017865.106 9  -3900050.93047  20337941.836    20337945.0674
  23250265.362    -9332409.171 8  -7259384.10345  23250265.206    23250269.6174
  22218980.406     8982744.473 8   6935387.75146  22218980.100    22218984.0704
  22735890.112   -11505118.036 8  -8947051.99646  22735889.451    22735894.5494
  22239961.090    -1570301.975 8  -1215405.40645  22239960.975    22239964.6214
  23201048.905      692865.258 8    613172.90046  23201047.918    23201052.8094
  20485504.577    -1873088.137 9  -1453226.50547  20485503.921    20485506.9984
  20378177.721    -7572486.654 9  -5879837.44148  20378177.282    20378179.0794
 01  7 12 17 42  0.0000000  0  9 23 15 03 06 21 26 22 17 18
  20609974.789    -2360264.746 9  -1711563.28148  20609974.192    20609977.1124
  20334877.035    -5033974.821 9  -3912603.96947  20334876.288    20334879.4974
  23232726.324    -9424578.171 8  -7331204.05345  23232726.039    23232730.4834
  22236171.505     9073084.146 8   7005782.21746  22236171.219    22236175.2814
  22721572.473   -11580357.917 8  -9005680.44346  22721571.803    22721576.7664
  22246108.369    -1537998.601 7  -1190233.98645  22246108.208    22246111.8234
  23209682.846      738235.359 8    648526.15946  23209681.721    23209686.5004
  20487693.928    -1861582.707 9  -1444261.25947  20487693.295    20487696.4334
  20373015.389    -7599614.464 9  -5900975.98748  20373014.975    20373016.8274
 01  7 12 17 42 30.0000000  0  9 23 15 03 06 21 26 22 17 18
  20613125.689    -2343706.416 9  -1698660.70047  20613125.100    20613128.0584
  20331865.742    -5049799.569 9  -3924934.95447  20331864.993    20331868.1684
  23215231.632    -9516512.507 8  -7402841.19046  23215231.380    23215235.9764
  22253422.847     9163740.829 8   7076423.67946  22253422.636    22253426.8124
  22707304.172   -11655338.901 8  -9064107.15146  22707303.501    22707308.1224
  22252373.513    -1505075.391 7  -1164579.50145  22252373.233    22252376.8354
  23218398.815      784036.433 8    684215.26346  23218397.578    23218402.2424
  20489933.242    -1849815.266 9  -1435091.83247  20489932.615    20489935.7104
  20367944.460    -7626262.516 9  -5921740.70648  20367944.056    20367945.8334
 01  7 12 17 43  0.0000000  0  9 23 15 03 06 21 26 22 17 18
  20616354.237    -2326740.290 9  -1685440.36248  20616353.675    20616356.6444
  20328909.003    -5065337.141 9  -3937042.16547  20328908.280    20328911.4744
  23197782.675    -9608208.328 8  -7474292.45246  23197782.469    23197786.8054
  22270734.597     9254714.553 8   7147312.19746  22270734.391    22270738.5764
  22693085.583   -11730057.950 8  -9122329.75446  22693084.894    22693089.2964
  22258756.774    -1471531.425 7  -1138441.41945  22258756.572    22258760.1494
  23227196.747      830268.284 8    720239.98046  23227195.326    23227199.9124
  20492222.692    -1837783.995 9  -1425716.83247  20492222.050    20492225.2334
  20362965.168    -7652429.436 9  -5942130.51348  20362964.683    20362966.4534
 01  7 12 17 43 30.0000000  0  9 23 15 03 06 21 26 22 17 18
  20619659.525    -2309370.635 9  -1671905.57747  20619658.977    20619661.9994
  20326006.435    -5080590.126 9  -3948927.61947  20326005.709    20326008.9754
  23180379.282    -9699665.757 8  -7545557.91845  23180378.608    23180382.9804
  22288105.875     9346000.594 8   7218444.08146  22288105.556    22288110.0054
  22678916.135   -11804517.424 8  -9180350.08246  22678915.644    22678920.0174
  22265257.563    -1437370.815 7  -1111822.75245  22265257.204    22265260.7814
  23236075.173      876925.304 8    756596.06446  23236073.990    23236078.3734
  20494561.801    -1825491.300 9  -1416138.13047  20494561.171    20494564.5034
  20358076.695    -7678118.232 9  -5962147.75248  20358076.257    20358078.0544
 01  7 12 17 44  0.0000000  0  9 23 15 03 06 21 26 22 17 18
  20623042.100    -2291595.013 9  -1658054.46247  20623041.585    20623044.5684
  20323158.787    -5095554.449 9  -3960588.14447  20323158.100    20323161.3594
  23163021.839    -9790878.477 8  -7616632.74746  23163021.444    23163025.6824
  22305536.599     9437600.916 8   7289820.85146  22305536.378    22305541.1164
  22664797.255   -11878712.674 8  -9238164.50946  22664796.708    22664801.1824
  22271875.739    -1402590.682 7  -1084721.39045  22271875.521    22271879.3724
  23245034.765      924008.716 8    793284.37346  23245033.718    23245038.0764
  20496951.498    -1812933.332 9  -1406352.71847  20496950.876    20496954.2024
  20353280.127    -7703324.963 9  -5981789.36048  20353279.618    20353281.4014
 01  7 12 17 44 30.0000000  0  9 23 15 03 06 21 26 22 17 18
  20626501.310    -2273417.413 9  -1643890.10948  20626500.731    20626503.7264
  20320365.662    -5110232.289 9  -3972025.42847  20320364.964    20320368.2574
  23145711.357    -9881846.884 8  -7687517.17546  23145710.708    23145714.9584
  22323026.946     9529511.186 8   7361439.13246  22323026.620    22323031.0274
  22650728.208   -11952645.776 8  -9295774.68146  22650727.718    22650732.2274
  22278611.324    -1367195.041 7  -1057140.36045  22278610.959    22278614.5964
  23254074.784      971513.684 8    830301.17046  23254073.790    23254078.1034
  20499391.252    -1800112.370 9  -1396362.36347  20499390.627    20499393.9664
  20348574.609    -7728052.498 9  -6001057.57148  20348574.105    20348575.9094
 01  7 12 17 45  0.0000000  0  9 23 15 03 06 21 26 22 17 18
  20630036.865    -2254837.966 9  -1629412.64247  20630036.273    20630039.2554
  20317627.343    -5124622.082 9  -3983238.26647  20317626.670    20317629.9874
  23128447.486    -9972567.343 8  -7758208.43846  23128447.099    23128451.3694
  22340575.851     9621730.774 8   7433298.46146  22340575.501    22340579.9594
  22636709.606   -12026314.727 8  -9353179.00346  22636708.933    22636713.4564
  22285463.745    -1331183.685 7  -1029079.62745  22285463.734    22285467.2974
  23263194.123     1019439.480 8    867645.92246  23263193.477    23263198.0584
  20501881.274    -1787027.093 9  -1386166.06647  20501880.663    20501884.0714
  20343960.433    -7752300.042 9  -6019951.75948  20343959.940    20343961.7454
 01  7 12 17 45 30.0000000  0  9 23 15 03 06 21 26 22 17 18
  20633648.594    -2235858.204 9  -1614623.23447  20633648.023    20633651.0034
  20314943.936    -5138723.649 9  -3994226.51047  20314943.228    20314946.5034
  23111231.520   -10063037.520 8  -7828704.63546  23111231.078    23111235.3914
  22358182.995     9714257.645 8   7505397.24146  22358182.702    22358187.3654
  22622741.107   -12099719.176 8  -9410377.23546  22622740.423    22622745.0014
  22292433.485    -1294558.086 7  -1000540.15245  22292433.200    22292436.9554
  23272393.756     1067783.738 8    905316.70346  23272393.207    23272397.8284
  20504421.720    -1773677.388 9  -1375763.72447  20504421.075    20504424.4704
  20339437.651    -7776067.808 9  -6038472.09848  20339437.141    20339438.9574
 01  7 12 17 46  0.0000000  0  9 23 15 03 06 21 26 22 17 18
  20637335.929    -2216481.088 9  -1599524.19447  20637335.380    20637338.3854
  20312315.124    -5152538.154 9  -4004991.07247  20312314.467    20312317.7104
  23094063.371   -10153256.294 8  -7899004.96246  23094063.023    23094067.2934
  22375848.291     9807088.558 8   7577732.89746  22375847.992    22375852.5614
  22608823.025   -12172859.450 8  -9467369.60246  22608822.268    22608826.8504
  22299519.611    -1257320.977 7   -971524.29945  22299519.443    22299523.0204
  23281672.644     1116542.086 8    943310.16446  23281671.804    23281676.3714
  20507012.234    -1760064.441 9  -1365156.24847  20507011.601    20507014.8974
  20335005.765    -7799357.593 9  -6056619.97948  20335005.229    20335007.0294
 01  7 12 17 46 30.0000000  0  9 23 15 03 06 21 26 22 17 18
  20641098.605    -2196707.823 9  -1584116.47647  20641098.095    20641101.1214
  20309741.037    -5166064.973 9  -4015531.45947  20309740.369    20309743.6234
  23076943.907   -10243221.243 8  -7969107.48246  23076943.225    23076947.6454
  22393571.381     9900221.968 8   7650304.24846  22393570.953    22393575.3464
  22594955.025   -12245735.298 8  -9524155.92746  22594954.389    22594959.1974
  22306721.641    -1219473.296 7   -942032.58245  22306721.558    22306725.1834
  23291029.141     1165712.157 8    981624.42145  23291028.416    23291033.1164
  20509652.874    -1746187.928 9  -1354343.40347  20509652.263    20509655.5334
  20330664.766    -7822169.226 9  -6074395.27948  20330664.314    20330666.1114
 01  7 12 17 47  0.0000000  0  9 23 15 03 06 21 26 22 17 18
  20644936.635    -2176538.883 9  -1568400.44248  20644936.188    20644939.1954
  20307221.990    -5179302.817 9  -4025846.67147  20307221.333    20307224.5334
  23059872.710   -10332929.009 8  -8039009.62146  23059872.283    23059877.0104
  22411351.425     9993656.801 8   7723110.52046  22411350.955    22411355.5674
  22581137.929   -12318344.727 8  -9580734.67246  22581137.324    22581142.2204
  22314040.165    -1181015.318 8   -912065.35045  22314039.991    22314043.4594
  23300464.140     1215292.841 8   1020258.67745  23300463.474    23300467.8244
  20512343.951    -1732046.556 9  -1343324.17847  20512343.350    20512346.5954
  20326414.990    -7844501.985 9  -6091797.42148  20326414.526    20326416.3654
 01  7 12 17 47 30.0000000  0  9 23 15 03 06 21 26 22 17 18
  20648849.700    -2155975.860 9  -1552377.32347  20648849.169    20648852.2304
  20304757.908    -5192251.572 9  -4035936.62147  20304757.249    20304760.4814
  23042851.227   -10422376.906 8  -8108709.26446  23042850.866    23042855.7284
  22429188.584    10087391.169 8   7796150.16346  22429188.196    22429192.9524
  22567371.629   -12390686.626 8  -9637104.92946  22567371.104    22567376.0064
  22321474.346    -1141948.377 8   -881623.61245  22321474.205    22321477.6244
  23309977.296     1265282.088 8   1059211.28645  23309976.189    23309980.4284
  20515085.472    -1717640.135 9  -1332098.41447  20515084.832    20515088.0644
  20322256.370    -7866356.033 9  -6108826.55248  20322255.905    20322257.6544
 01  7 12 17 48  0.0000000  0  9 23 15 03 06 21 26 22 17 18
  20652837.431    -2135020.525 9  -1536048.51247  20652836.888    20652839.9164
  20302348.896    -5204911.049 9  -4045801.14947  20302348.257    20302351.4614
  23025879.846   -10511562.929 8  -8178204.83046  23025879.445    23025884.3124
  22447082.145    10181422.768 8   7869421.42946  22447081.749    22447086.4554
  22553655.941   -12462761.356 8  -9693267.01746  22553655.649    22553660.5924
  22329024.128    -1102274.375 8   -850708.79645  22329023.948    22329027.4894
  23319567.046     1315676.904 8   1098479.90545  23319565.931    23319570.6314
  20517877.324    -1702968.902 9  -1320666.31247  20517876.709    20517879.9184
  20318188.591    -7887732.346 9  -6125483.41048  20318188.081    20318189.8774
 01  7 12 17 48 30.0000000  0  9 23 15 03 06 21 26 22 17 18
  20656899.628    -2113673.533 9  -1519414.51247  20656899.046    20656902.0824
  20299995.054    -5217280.370 9  -4055439.59647  20299994.396    20299997.6554
  23008958.808   -10600483.757 8  -8247493.74946  23008958.390    23008963.1504
  22465032.133    10275750.428 8   7942923.38346  22465031.851    22465036.1594
  22539991.855   -12534567.424 8  -9749219.76246  22539991.329    22539996.1324
  22336689.368    -1061993.817 8   -819321.38745  22336689.162    22336692.5974
  23329233.173     1366475.076 8   1138062.84245  23329232.339    23329237.4124
  20520719.827    -1688031.843 9  -1309027.07347  20520719.202    20520722.3874
  20314211.810    -7908630.390 9  -6141767.59848  20314211.304    20314213.1514
 01  7 12 17 49  0.0000000  0  9 23 15 03 06 21 26 22 17 18
  20661036.047    -2091937.006 9  -1502476.98248  20661035.473    20661038.4804
  20297696.421    -5229359.758 9  -4064852.11247  20297695.768    20297699.0244
  22992088.162   -10689137.719 8  -8316574.73446  22992088.198    22992092.6804
  22483038.142    10370371.710 8   8016654.15546  22483037.866    22483042.2894
  22526378.834   -12606104.718 8  -9804963.07946  22526378.273    22526382.7724
  22344469.285    -1021108.696 8   -787462.85046  22344469.306    22344472.8764
  23338976.526     1417673.559 8   1177957.68445  23338975.143    23338979.9684
  20523612.798    -1672829.343 9  -1297180.99247  20523612.149    20523615.3344
  20310325.930    -7929050.970 9  -6157679.73448  20310325.394    20310327.2334
 01  7 12 17 49 30.0000000  0  9 23 15 03 06 21 26 22 17 18
  20665246.146    -2069812.890 9  -1485237.42447  20665245.528    20665248.5494
  20295452.916    -5241149.203 9  -4074038.70347  20295452.271    20295455.5404
  22975269.305   -10777522.879 8  -8385446.24646  22975269.012    22975273.2774
  22501099.389    10465284.260 8   8090611.89746  22501099.094    22501103.6894
  22512817.020   -12677372.868 8  -9860496.67046  22512816.392    22512820.7934
  22352364.521     -979620.807 8   -755134.64846  22352364.320    22352367.9244
  23348794.709     1469269.923 8   1218162.60945  23348793.657    23348798.5164
  20526556.197    -1657361.616 9  -1285128.24147  20526555.561    20526558.7574
  20306530.679    -7948994.987 9  -6173220.52848  20306530.152    20306532.0364
 01  7 12 17 50  0.0000000  0  9 23 15 03 06 21 26 22 17 18
  20669529.942    -2047301.972 9  -1467696.47447  20669529.283    20669532.2744
  20293264.769    -5252647.658 9  -4082998.55047  20293264.116    20293267.4884
  22958501.985   -10865635.977 8  -8454105.77046  22958501.720    22958505.6794
  22519215.880    10560486.890 8   8164795.60946  22519215.682    22519219.9544
  22499306.424   -12748370.792 8  -9915819.68246  22499305.895    22499310.3554
  22360373.887     -937531.032 8   -722337.43846  22360373.746    22360377.3214
  23358688.585     1521262.505 8   1258676.24745  23358687.517    23358692.6974
  20529550.256    -1641627.777 9  -1272868.13047  20529549.658    20529552.8794
  20302826.237    -7968461.884 9  -6188389.54748  20302825.746    20302827.5694
 01  7 12 17 50 30.0000000  0  9 23 15 03 06 21 26 22 17 18
  20673886.696    -2024406.447 9  -1449855.81947  20673886.106    20673889.1484
  20291131.989    -5263855.199 9  -4091731.71047  20291131.372    20291134.7634
  22941786.846   -10953475.027 8  -8522551.75146  22941786.473    22941790.4924
  22537387.127    10655977.091 8   8239203.43246  22537386.822    22537391.3374
  22485847.382   -12819098.469 8  -9970932.11946  22485846.802    22485851.3104
  22368497.352     -894841.232 8   -689072.65446  22368497.332    22368500.9684
  23368656.919     1573647.902 8   1299495.97745  23368656.076    23368661.3524
  20532594.917    -1625628.099 9  -1260400.87247  20532594.311    20532597.5244
  20299212.409    -7987452.754 9  -6203187.61748  20299211.898    20299213.7434
 01  7 12 17 51  0.0000000  0  9 23 15 03 06 21 26 22 17 18
  20678316.880    -2001126.302 9  -1431715.46947  20678316.250    20678319.2354
  20289054.931    -5274770.075 9  -4100236.81547  20289054.310    20289057.7414
  22925124.103   -11041036.257 8  -8590781.26046  22925124.047    22925128.1064
  22555612.778    10751754.477 8   8313835.05946  22555612.584    22555617.6524
  22472440.163   -12889553.861 8 -10025832.38946  22472439.574    22472444.0724
  22376735.207     -851551.581 8   -655340.48046  22376735.128    22376738.6034
  23378700.198     1626424.680 8   1340620.69145  23378699.332    23378704.2294
  20535690.513    -1609360.962 9  -1247725.21247  20535689.848    20535693.0884
  20295689.374    -8005966.532 9  -6217613.94648  20295688.877    20295690.7554
 01  7 12 17 51 30.0000000  0  9 23 15 03 06 21 26 22 17 18
  20682819.322    -1977465.478 9  -1413278.47747  20682818.772    20682821.7674
  20287033.126    -5285394.691 9  -4108515.75047  20287032.540    20287035.9724
  22908514.716   -11128319.826 8  -8658794.39046  22908514.366    22908518.6404
  22573892.566    10847814.558 8   8388686.91946  22573892.388    22573897.2504
  22459084.297   -12959738.679 8 -10080521.82746  22459083.800    22459088.3694
  22385086.418     -807666.069 8   -621143.98046  22385086.277    22385089.8544
  23388817.447     1679588.178 7   1382046.71745  23388816.120    23388821.2654
  20538836.452    -1592828.667 9  -1234842.93147  20538835.810    20538839.0974
  20292256.537    -8024006.059 9  -6231670.70948  20292256.074    20292257.9164
 01  7 12 17 52  0.0000000  0  9 23 15 03 06 21 26 22 17 18
  20687394.543    -1953423.069 9  -1394544.15347  20687393.915    20687396.8684
  20285067.083    -5295726.285 9  -4116566.35347  20285066.491    20285069.9264
  22891958.754   -11215320.877 8  -8726587.39146  22891958.467    22891963.0444
  22592226.270    10944157.509 8   8463759.22746  22592225.987    22592230.6564
  22445780.579   -13029650.044 8 -10134998.17746  22445780.090    22445784.7504
  22393550.898     -763184.017 8   -586482.66046  22393550.897    22393554.5204
  23399007.104     1733138.430 8   1423774.11345  23399006.175    23399011.7654
  20542033.403    -1576028.675 9  -1221752.05247  20542032.767    20542036.0294
  20288914.289    -8041569.374 9  -6245356.41848  20288913.887    20288915.6714
 01  7 12 17 52 30.0000000  0  9 23 15 03 06 21 26 22 17 18
  20692041.685    -1929001.708 9  -1375514.53847  20692041.128    20692044.1374
  20283156.775    -5305765.450 9  -4124389.09347  20283156.163    20283159.6044
  22875456.892   -11302037.851 8  -8794159.03446  22875456.820    22875461.3824
  22610613.255    11040780.469 8   8539049.72546  22610612.978    22610617.6694
  22432528.782   -13099288.457 8 -10189261.84146  22432528.284    22432532.9874
  22402128.813     -718107.872 8   -551358.40446  22402128.640    22402132.1234
  23409270.908     1787071.944 8   1465800.15445  23409269.639    23409274.8284
  20545281.175    -1558961.725 9  -1208453.15147  20545280.508    20545283.7394
  20285662.517    -8058657.900 9  -6258672.14948  20285662.058    20285663.8504
 01  7 12 17 53  0.0000000  0  9 23 15 03 06 21 26 22 17 18
  20696760.719    -1904203.118 9  -1356190.97747  20696760.141    20696763.1494
  20281302.065    -5315511.900 9  -4131983.73547  20281301.457    20281304.8954
  22859010.216   -11388468.388 8  -8861507.45246  22859009.777    22859014.1584
  22629053.417    11137681.193 8   8614556.65846  22629052.992    22629057.4074
  22419328.832   -13168653.794 8 -10243312.71346  22419328.382    22419333.1384
  22410818.799     -672439.318 8   -515772.51545  22410818.953    22410822.7834
  23419606.314     1841385.449 7   1508122.31545  23419605.015    23419610.3084
  20548579.660    -1541627.640 9  -1194946.09947  20548579.025    20548582.2774
  20282501.001    -8075272.092 9  -6271618.27048  20282500.527    20282502.2794
 01  7 12 17 53 30.0000000  0  9 23 15 03 06 21 26 22 17 18
  20701551.242    -1879028.738 9  -1336574.59647  20701550.665    20701553.7524
  20279503.165    -5324965.243 9  -4139349.99047  20279502.602    20279506.0034
  22842617.870   -11474610.140 8  -8928630.86746  22842617.485    22842621.6734
  22647545.506    11234857.683 8   8690278.49246  22647545.131    22647549.5894
  22406181.147   -13237745.559 8 -10297150.41246  22406180.544    22406185.3584
  22419622.200     -626180.088 8   -479726.40645  22419622.048    22419625.4014
  23430013.409     1896076.274 8   1550738.46345  23430012.439    23430017.8674
  20551929.032    -1524026.350 9  -1181230.84947  20551928.456    20551931.7464
  20279429.507    -8091412.549 9  -6284195.24348  20279429.024    20279430.8204
 01  7 12 17 54  0.0000000  0  9 23 15 03 06 21 26 22 17 18
  20706413.168    -1853479.697 9  -1316666.27347  20706412.598    20706415.5994
  20277760.197    -5334124.700 9  -4146487.24147  20277759.599    20277763.0254
  22826281.029   -11560460.157 8  -8995526.94146  22826280.755    22826284.7134
  22666090.077    11332308.741 8   8766214.24946  22666089.632    22666094.0664
  22393085.811   -13306562.322 8 -10350773.84146  22393085.189    22393089.9054
  22428537.045     -579331.170 8   -443220.75345  22428536.987    22428540.5674
  23440493.216     1951143.046 8   1593647.56545  23440491.685    23440496.9084
  20555329.455    -1506157.060 9  -1167306.75447  20555328.902    20555332.1764
  20276448.193    -8107079.290 9  -6296403.10248  20276447.797    20276449.5604
 01  7 12 17 54 30.0000000  0  9 23 15 03 06 21 26 22 17 18
  20711345.997    -1827557.795 9  -1296467.40447  20711345.364    20711348.3864
  20276073.134    -5342990.144 9  -4153395.39347  20276072.567    20276076.0004
  22810000.121   -11646016.411 8  -9062194.12646  22809999.756    22810004.0294
  22684686.169    11430031.934 8   8842362.08146  22684685.729    22684690.1524
  22380042.953   -13375103.731 8 -10404182.71646  22380042.329    22380046.8354
  22437564.218     -531894.627 8   -406257.25445  22437564.037    22437567.4224
  23451042.629     2006582.891 8   1636847.37245  23451041.353    23451046.7874
  20558780.855    -1488019.680 9  -1153173.75847  20558780.352    20558783.5754
  20273556.998    -8122273.070 9  -6308242.40148  20273556.519    20273558.2624
 01  7 12 17 55  0.0000000  0  9 23 15 03 06 21 26 22 17 18
  20716349.586    -1801263.568 9  -1275978.41747  20716349.010    20716352.0384
  20274442.367    -5351560.139 9  -4160073.32547  20274441.756    20274445.2124
  22793775.492   -11731275.373 8  -9128629.65446  22793775.448    22793779.7954
  22703333.818    11528026.360 8   8918721.22646  22703333.439    22703337.9334
  22367052.874   -13443368.090 8 -10457375.69346  22367052.152    22367056.6034
  22446702.697     -483870.990 8   -368836.23845  22446702.481    22446706.0994
  23461662.921     2062394.074 8   1680336.51245  23461661.848    23461667.3104
  20562283.559    -1469612.913 9  -1138830.85047  20562283.067    20562286.2444
  20270755.802    -8136993.274 9  -6319712.69648  20270755.368    20270757.1034
 01  7 12 17 55 30.0000000  0  9 23 15 03 06 21 26 22 17 18
  20721423.563    -1774599.563 9  -1255201.28847  20721422.958    20721426.0444
  20272867.701    -5359835.395 9  -4166521.59047  20272867.076    20272870.5174
  22777608.383   -11816235.343 8  -9194832.17746  22777607.991    22777612.3564
  22722032.456    11626288.958 8   8995289.36546  22722032.194    22722036.8664
  22354114.767   -13511356.564 8 -10510353.68046  22354114.080    22354118.7774
  22455952.339     -435262.868 8   -330959.79045  22455952.238    22455955.9774
  23472353.776     2118572.482 8   1724111.84345  23472352.618    23472357.7244
  20565837.440    -1450937.638 9  -1124278.71547  20565836.937    20565840.0844
  20268044.530    -8151241.326 9  -6330815.06548  20268044.005    20268045.8304
 01  7 12 17 56  0.0000000  0  9 23 15 03 06 21 26 22 17 18
  20726567.794    -1747566.840 9  -1234136.85047  20726567.206    20726570.2314
  20271349.192    -5367815.378 9  -4172739.76347  20271348.528    20271351.9714
  22761498.162   -11900893.551 8  -9260799.59446  22761497.953    22761502.4774
  22740782.248    11724817.975 8   9072065.11346  22740781.943    22740786.2074
  22341229.555   -13579067.828 8 -10563115.67446  22341228.969    22341233.6644
  22465313.056     -386071.841 8   -292629.13645  22465313.037    22465316.7004
  23483113.873     2175116.131 8   1768171.76845  23483112.749    23483117.7464
  20569442.596    -1431993.161 9  -1109516.81247  20569442.032    20569445.1674
  20265422.968    -8165017.510 9  -6341549.75748  20265422.510    20265424.2344
 01  7 12 17 56 30.0000000  0  9 23 15 03 06 21 26 22 17 18
  20731781.662    -1720167.956 9  -1212787.08947  20731781.017    20731784.1164
  20269886.832    -5375500.233 9  -4178727.98247  20269886.200    20269889.6354
  22745446.236   -11985248.333 8  -9326530.55346  22745445.895    22745450.2054
  22759582.067    11823610.862 8   9149046.45646  22759581.789    22759586.0754
  22328397.320   -13646502.186 8 -10615661.90346  22328396.603    22328401.3804
  22474784.245     -336300.269 8   -253846.10445  22474784.280    22474788.0924
  23493942.700     2232022.089 8   1812513.99145  23493941.473    23493946.7444
  20573098.852    -1412780.100 9  -1094545.63147  20573098.210    20573101.3164
  20262891.012    -8178323.048 9  -6351917.71048  20262890.563    20262892.2994
 01  7 12 17 57  0.0000000  0  9 23 15 03 06 21 26 22 17 18
  20737064.961    -1692404.049 9  -1191152.89747  20737064.369    20737067.4394
  20268480.857    -5382889.224 9  -4184485.63847  20268480.183    20268483.5444
  22729452.421   -12069296.798 8  -9392022.83246  22729451.908    22729456.1434
  22778431.575    11922665.757 8   9226231.97446  22778431.320    22778435.7004
  22315617.756   -13713658.814 8 -10667991.70347  22315617.190    22315621.9744
  22484365.950     -285949.660 8   -214611.89145  22484365.798    22484369.3664
  23504839.676     2289288.010 8   1857136.70545  23504838.738    23504844.1644
  20576806.341    -1393297.799 9  -1079364.63647  20576805.634    20576808.7154
  20260448.567    -8191158.142 9  -6361919.07548  20260448.113    20260449.9364
 01  7 12 17 57 30.0000000  0  9 23 15 03 06 21 26 22 17 18
  20742417.632    -1664275.823 9  -1169234.82147  20742417.013    20742419.9804
  20267131.387    -5389980.776 9  -4190011.53647  20267130.707    20267134.1314
  22713517.376   -12153035.401 8  -9457273.65846  22713517.029    22713521.2234
  22797330.783    12021981.805 8   9303620.94846  22797330.506    22797335.1774
  22302891.387   -13780536.182 8 -10720103.90447  22302890.840    22302895.6824
  22494057.074     -235020.726 8   -174927.03445  22494057.109    22494060.9224
  23515805.453     2346911.757 8   1902038.23245  23515804.516    23515809.7364
  20580565.228    -1373545.025 9  -1063972.89647  20580564.482    20580567.6024
  20258095.759    -8203522.530 9  -6371553.66648  20258095.243    20258097.0234
 01  7 12 17 58  0.0000000  0  9 23 15 03 06 21 26 22 17 18
  20747838.951    -1635786.370 9  -1147035.26147  20747838.340    20747841.4204
  20265838.278    -5396776.558 9  -4195306.95247  20265837.573    20265840.9514
  22697641.587   -12236463.732 8  -9522282.70246  22697641.150    22697645.4254
  22816279.066    12121555.160 8   9381210.44546  22816278.769    22816283.4794
  22290217.987   -13847135.284 8 -10771999.27447  22290217.543    22290222.2184
  22503857.808     -183517.060 8   -134794.34245  22503857.923    22503861.7814
  23526838.211     2404888.913 8   1947215.15845  23526837.300    23526842.4604
  20584375.237    -1353523.203 9  -1048371.50147  20584374.494    20584377.6604
  20255831.976    -8215418.242 9  -6380823.05348  20255831.549    20255833.3914
 01  7 12 17 58 30.0000000  0  9 23 15 03 06 21 26 22 17 18
  20753329.152    -1606935.419 9  -1124554.03247  20753328.570    20753331.5724
  20264601.812    -5403274.155 9  -4200370.02547  20264601.089    20264604.4974
  22681825.412   -12319577.373 8  -9587046.54846  22681825.099    22681829.4744
  22835276.068    12221385.593 8   9459000.25846  22835275.866    22835280.8674
  22277597.868   -13913454.093 8 -10823676.25147  22277597.490    22277602.0554
  22513768.022     -131438.447 8    -94213.63545  22513768.023    22513771.9464
  23537937.663     2463219.106 8   1992667.16345  23537937.015    23537942.2714
  20588236.881    -1333230.207 9  -1032558.79747  20588236.191    20588239.2924
  20253657.825    -8226843.979 9  -6389726.22948  20253657.355    20253659.1444
 01  7 12 17 59  0.0000000  0  9 23 15 03 06 21 26 22 17 18
  20758887.533    -1577726.268 9  -1101793.66947  20758886.872    20758889.9344
  20263421.899    -5409474.922 9  -4205201.80247  20263421.195    20263424.6124
  22666069.677   -12402375.496 8  -9651564.51546  22666069.276    22666073.5384
  22854321.694    12321469.448 8   9536987.53446  22854321.452    22854326.5084
  22265031.050   -13979493.548 8 -10875135.53147  22265030.630    22265035.0734
  22523787.318      -78788.535 8    -53187.77645  22523787.167    22523790.8924
  23549104.412     2521898.274 8   2038391.09145  23549103.554    23549108.4924
  20592149.932    -1312667.463 9  -1016535.89247  20592149.232    20592152.2974
  20251572.550    -8237802.112 9  -6398265.03948  20251572.078    20251573.8574
 01  7 12 17 59 30.0000000  0  9 23 15 03 06 21 26 22 17 18
  20764513.629    -1548160.683 9  -1078755.57347  20764513.027    20764516.1374
  20262298.501    -5415378.628 9  -4209802.10647  20262297.743    20262301.1854
  22650374.133   -12484855.651 8  -9715834.73746  22650373.643    22650378.1234
  22873414.837    12421804.409 8   9615170.49346  22873414.545    22873419.8074
  22252517.517   -14045253.297 8 -10926376.85047  22252516.843    22252521.4344
  22533914.431      -25569.304 8    -11718.25645  22533914.316    22533918.2774
  23560336.840     2580923.260 8   2084384.51946  23560335.779    23560340.6754
  20596114.223    -1291834.782 9  -1000302.66047  20596113.537    20596116.6544
  20249576.164    -8248293.229 9  -6406439.93148  20249575.720    20249577.5244
 01  7 12 18  0  0.0000000  0  9 23 15 03 06 21 26 22 17 18
  20770207.613    -1518238.567 9  -1055439.65847  20770207.055    20770210.0584
  20261231.950    -5420983.389 9  -4214169.46147  20261231.241    20261234.6184
  22634739.374   -12567013.841 8  -9779854.08646  22634739.236    22634743.8264
  22892555.507    12522390.339 8   9693548.99546  22892555.333    22892560.8374
  22240057.341   -14110731.290 8 -10977398.61647  22240056.799    22240061.4004
  22544150.064       28219.106 8     30194.77146  22544150.030    22544154.0554
  23571634.441     2640292.709 8   2130646.30045  23571633.367    23571638.5144
  20600130.193    -1270730.336 9   -983857.67447  20600129.537    20600132.7764
  20247668.831    -8258316.463 9  -6414250.24948  20247668.331    20247670.1124
 01  7 12 18  0 30.0000000  0  9 23 15 03 06 21 26 22 17 18
  20775969.257    -1487961.626 9  -1031847.25547  20775968.606    20775971.6124
  20260222.440    -5426288.698 9  -4218303.47747  20260221.690    20260225.0394
  22619166.993   -12648847.818 8  -9843620.78246  22619166.777    22619171.2604
  22911743.967    12623225.081 8   9772121.36946  22911743.720    22911749.2104
  22227651.067   -14175927.257 8 -11028200.64247  22227650.448    22227654.9034
  22554493.368       82574.580 8     72549.65846  22554493.369    22554497.5074
  23582997.470     2700003.912 8   2177174.43745  23582996.332    23583001.1584
  20604198.030    -1249353.893 9   -967200.72647  20604197.401    20604200.6224
  20245850.429    -8267872.522 9  -6421696.53148  20245849.890    20245851.6744
 01  7 12 18  1  0.0000000  0  9 23 15 03 06 21 26 22 17 18
  20781797.597    -1457333.419 9  -1007981.15047  20781796.971    20781800.0324
  20259269.554    -5431296.120 9  -4222205.37847  20259268.850    20259272.1824
  22603656.132   -12730356.803 8  -9907134.26146  22603656.044    22603660.5114
  22930978.631    12724304.387 8   9850884.34846  22930978.355    22930984.1534
  22215298.095   -14240842.560 8 -11078783.96147  22215297.480    22215301.8974
  22564944.426      137493.408 8    115343.51946  22564944.344    22564948.4074
  23594424.293     2760052.666 8   2223965.62345  23594423.171    23594427.8884
  20608317.241    -1227707.216 9   -950333.20347  20608316.609    20608319.8754
  20244120.341    -8276963.950 9  -6428780.77048  20244119.837    20244121.6734
 01  7 12 18  1 30.0000000  0  9 23 15 03 06 21 26 22 17 18
  20787692.761    -1426353.927 9   -983841.29647  20787692.150    20787695.2614
  20258373.765    -5436003.887 9  -4225873.77247  20258373.030    20258376.2884
  22588208.164   -12811536.921 8  -9970391.46546  22588208.158    22588212.3144
  22950259.898    12825627.866 8   9929837.59346  22950259.765    22950265.2484
  22202998.686   -14305475.837 8 -11129147.52947  22202998.254    22203002.5274
  22575502.252      192974.907 8    158575.81146  22575502.045    22575506.0574
  23605915.083     2820437.908 8   2271018.92245  23605913.915    23605918.8474
  20612488.219    -1205788.587 9   -933253.76447  20612487.592    20612490.8974
  20242478.876    -8285589.974 9  -6435502.34748  20242478.394    20242480.1714
 01  7 12 18  2  0.0000000  0  9 23 15 03 06 21 26 22 17 18
  20793654.448    -1395025.330 9   -959429.41947  20793653.823    20793656.9484
  20257534.902    -5440412.155 9  -4229308.80247  20257534.181    20257537.4224
  22572823.584   -12892386.035 8 -10033390.73946  22572823.319    22572827.0614
  22969587.351    12927192.657 8  10008978.81346  22969587.215    22969592.5554
  22190753.158   -14369826.629 8 -11179290.96947  22190752.602    22190756.9424
  22586166.816      249016.766 8    202244.73246  22586166.642    22586170.5094
  23617469.146     2881155.810 8   2318331.49545  23617468.337    23617473.1164
  20616710.908    -1183598.090 9   -915962.48947  20616710.308    20616713.6504
  20240925.755    -8293751.718 9  -6441862.15548  20240925.269    20240927.0614
 01  7 12 18  2 30.0000000  0  9 23 15 03 06 21 26 22 17 18
  20799682.025    -1363349.771 9   -934747.18547  20799681.440    20799684.6614
  20256753.073    -5444521.143 9  -4232510.61847  20256752.362    20256755.4784
  22557502.209   -12972902.348 8 -10096130.66846  22557501.527    22557505.1624
  22988959.997    13028996.236 8  10088306.16045  22988959.635    22988965.3344
  22178561.058   -14433895.381 8 -11229214.62447  22178560.602    22178565.0364
  22596937.090      305616.318 8    246348.25546  22596937.076    22596941.1754
  23629086.265     2942203.002 8   2365900.67845  23629085.434    23629090.0064
  20620985.325    -1161136.098 9   -898459.65547  20620984.689    20620988.0474
  20239460.761    -8301450.529 9  -6447861.23048  20239460.243    20239461.9994
 01  7 12 18  3  0.0000000  0  9 23 15 03 06 21 26 22 17 18
  20805775.947    -1331326.806 9   -909794.25347  20805775.351    20805778.4334
  20256028.750    -5448327.832 9  -4235476.88147  20256027.994    20256031.0384
  22542244.127   -13053081.221 8 -10158607.69946  22542243.969    22542247.6924
  23008378.242    13131038.851 8  10167819.72545  23008377.751    23008383.6464
  22166423.478   -14497678.944 8 -11278916.06947  22166422.985    22166427.4794
  22607813.837      362774.028 8    290886.65046  22607813.916    22607817.7444
  23640765.859     3003579.510 8   2413726.45045  23640764.799    23640769.6174
  20625311.956    -1138400.008 9   -880743.25047  20625311.284    20625314.6794
  20238084.291    -8308684.600 9  -6453498.17348  20238083.676    20238085.3844
